                ,  0.290,  0.386,  0.483,  0.580,  0.676,  0.773,  0.869,  0.966,  1.063,  1.159,  1.256,  1.352,  1.449,  1.545,  1.642,  1.739,  1.835,  1.932,  2.028,  2.125,  2.222,  2.318,  2.415,  2.511,  2.608,  2.705,  2.801,  2.898,  2.994,  3.091,  3.188,  3.284,  3.381,  3.477,  3.574,  3.671,  3.767,  3.864,  3.960,  4.057,  4.153,  4.250,  4.347,  4.443,  4.540,  4.636,  4.733,  4.830,  4.926,  5.023,  5.119,  5.216,  5.313,  5.409,  5.506,  5.602,  5.699,  5.796
2000/11/16 00:00,  999.0,  999.0,   -1.3,   -3.1,   -3.5,   -2.1,   -2.4,   -2.0,  999.0,   -2.2,  999.0,  999.0,    3.3,  999.0,    1.3,  999.0,   -0.6,   -1.6,  999.0,  999.0,  999.0,  999.0,  999.0,  999.0,  999.0,  999.0,  999.0,  999.0,  999.0,  999.0,  999.0,  999.0,  999.0,  999.0,  999.0,  999.0,  999.0,  999.0,  999.0,  999.0,  999.0,  999.0,  999.0,  999.0,  999.0,  999.0,  999.0,  999.0,  999.0,  999.0,  999.0,  999.0,  999.0,  999.0,  999.0,  999.0,  999.0,  999.0
2000/11/16 00:10,  999.0,   -2.4,   -3.5,   -2.0,   -1.9,   -0.9,   -2.7,   -2.6,   -2.1,  999.0,   -1.4,   -1.0,  999.0,    5.0,    1.4,    6.6,  999.0,  999.0,  999.0,  999.0,  999.0,  999.0,  999.0,  999.0,  999.0,  999.0,  999.0,  999.0,  999.0,  999.0,  999.0,  999.0,  999.0,  999.0,  999.0,  999.0,  999.0,  999.0,  999.0,  999.0,  999.0,  999.0,  999.0,  999.0,  999.0,  999.0,  999.0,  999.0,  999.0,  999.0,  999.0,  999.0,  999.0,  999.0,  999.0,  999.0,  999.0,  999.0
2000/11/16 00:20,  999.0,   -3.4,  999.0,   -1.1,   -2.6,   -1.9,   -3.7,   -1.9,    1.2,   -1.6,   -0.3,    0.6,    1.0,    2.5,  999.0,    1.5,  999.0,  999.0,  999.0,  999.0,   -2.7,  999.0,  999.0,  999.0,  999.0,  999.0,  999.0,  999.0,  999.0,  999.0,  999.0,  999.0,  999.0,  999.0,  999.0,  999.0,  999.0,  999.0,  999.0,  999.0,  999.0,  999.0,  999.0,  999.0,  999.0,  999.0,  999.0,  999.0,  999.0,  999.0,  999.0,  999.0,  999.0,  999.0,  999.0,  999.0,  999.0,  999.0
2000/11/16 00:30,  999.0,   -1.5,   -2.1,   -1.2,   -0.8,    0.3,   -3.8,   -2.4,  999.0,    2.9,  999.0,  999.0,    0.4,    4.5,    5.7,  999.0,  999.0,  999.0,  999.0,  999.0,  999.0,  999.0,  999.0,  999.0,  999.0,  999.0,  999.0,  999.0,  999.0,  999.0,  999.0,  999.0,  999.0,  999.0,  999.0,  999.0,  999.0,  999.0,  999.0,  999.0,  999.0,  999.0,  999.0,  999.0,  999.0,  999.0,  999.0,  999.0,  999.0,  999.0,  999.0,  999.0,  999.0,  999.0,  999.0,  999.0,  999.0,  999.0
2000/11/16 00:40,  999.0,   -1.8,    0.0,   -1.6,   -0.6,   -2.1,   -2.7,   -0.9,   -1.8,    6.0,    3.1,    6.4,    5.2,    5.4,    6.8,  999.0,    6.9,  999.0,  999.0,  999.0,  999.0,  999.0,  999.0,  999.0,  999.0,  999.0,  999.0,  999.0,  999.0,  999.0,  999.0,  999.0,  999.0,  999.0,  999.0,  999.0,  999.0,  999.0,  999.0,  999.0,  999.0,  999.0,  999.0,  999.0,  999.0,  999.0,  999.0,  999.0,  999.0,  999.0,  999.0,  999.0,  999.0,  999.0,  999.0,  999.0,  999.0,  999.0
2000/11/16 00:50,  999.0,   -1.0,  999.0,  999.0,   -0.8,   -2.4,   -2.2,   -0.3,    2.6,    0.4,   -2.0,    3.9,    3.4,    3.6,    9.3,  999.0,  999.0,  999.0,  999.0,  999.0,  999.0,  999.0,  999.0,  999.0,  999.0,  999.0,  999.0,  999.0,  999.0,  999.0,  999.0,  999.0,  999.0,  999.0,  999.0,  999.0,  999.0,  999.0,  999.0,  999.0,  999.0,  999.0,  999.0,  999.0,  999.0,  999.0,  999.0,  999.0,  999.0,  999.0,  999.0,  999.0,  999.0,  999.0,  999.0,  999.0,  999.0,  999.0
2000/11/16 01:00,  999.0,   -2.9,   -0.4,   -1.6,   -1.5,   -2.6,   -2.1,   -0.4,    1.9,  999.0,    1.9,    1.7,    0.0,    2.8,    2.3,  999.0,  999.0,  999.0,  999.0,  999.0,  999.0,  999.0,  999.0,  999.0,  999.0,  999.0,  999.0,  999.0,  999.0,  999.0,  999.0,  999.0,  999.0,  999.0,  999.0,  999.0,  999.0,  999.0,  999.0,  999.0,  999.0,  999.0,  999.0,  999.0,  999.0,  999.0,  999.0,  999.0,  999.0,  999.0,  999.0,  999.0,  999.0,  999.0,  999.0,  999.0,  999.0,  999.0
2000/11/16 01:10,  999.0,   -0.6,   -0.6,   -0.2,   -0.7,   -1.8,   -2.3,   -1.1,    0.9,    0.3,    0.4,    4.6,  999.0,  999.0,    3.3,    4.9,  999.0,  999.0,  999.0,  999.0,  999.0,  999.0,  999.0,  999.0,  999.0,  999.0,  999.0,  999.0,  999.0,  999.0,  999.0,  999.0,  999.0,  999.0,  999.0,  999.0,  999.0,  999.0,  999.0,  999.0,  999.0,  999.0,  999.0,  999.0,  999.0,  999.0,  999.0,  999.0,  999.0,  999.0,  999.0,  999.0,  999.0,  999.0,  999.0,  999.0,  999.0,  999.0
2000/11/16 01:20,  999.0,  999.0,    0.4,    0.2,    0.1,   -1.9,   -0.2,   -1.0,   -1.8,    0.9,    2.3,    2.4,    0.2,  999.0,    5.5,  999.0,    5.9,  999.0,  999.0,  999.0,  999.0,  999.0,  999.0,  999.0,  999.0,  999.0,  999.0,  999.0,  999.0,  999.0,  999.0,  999.0,  999.0,  999.0,  999.0,  999.0,  999.0,  999.0,  999.0,  999.0,  999.0,  999.0,  999.0,  999.0,  999.0,  999.0,  999.0,  999.0,  999.0,  999.0,  999.0,  999.0,  999.0,  999.0,  999.0,  999.0,  999.0,  999.0
2000/11/16 01:30,  999.0,  999.0,    0.6,   -0.9,   -2.0,   -2.1,   -1.8,   -2.4,   -1.8,    3.6,    1.7,    0.2,    5.4,    4.5,  999.0,    6.4,    8.6,  999.0,  999.0,  999.0,  999.0,  999.0,  999.0,  999.0,  999.0,  999.0,  999.0,  999.0,  999.0,  999.0,  999.0,  999.0,  999.0,  999.0,  999.0,  999.0,  999.0,   -6.0,  999.0,   -4.9,  999.0,  999.0,  999.0,   -0.4,  999.0,   -0.4,  999.0,  999.0,  999.0,  999.0,  999.0,  999.0,  999.0,  999.0,  999.0,  999.0,  999.0,  999.0
2000/11/16 01:40,  999.0,  999.0,   -0.4,    0.1,   -1.8,   -1.7,  999.0,    0.3,    1.5,    1.9,    0.7,    2.6,    6.4,  999.0,    7.0,  999.0,  999.0,  999.0,  999.0,  999.0,  999.0,  999.0,  999.0,  999.0,  999.0,  999.0,  999.0,  999.0,  999.0,  999.0,  999.0,  999.0,  999.0,  999.0,  999.0,  999.0,  999.0,  999.0,  999.0,  999.0,  999.0,  999.0,  999.0,  999.0,  999.0,  999.0,  999.0,  999.0,  999.0,  999.0,  999.0,  999.0,  999.0,  999.0,  999.0,  999.0,  999.0,  999.0
2000/11/16 01:50,  999.0,  999.0,   -3.8,   -0.6,   -0.8,   -0.6,   -2.3,   -1.7,   -3.3,   -1.1,    3.0,    0.1,    5.4,    6.2,  999.0,  999.0,  999.0,  999.0,  999.0,  999.0,  999.0,   26.4,  999.0,  999.0,   29.5,  999.0,  999.0,   31.1,  999.0,  999.0,  999.0,  999.0,  999.0,  999.0,  999.0,   40.5,  999.0,   41.9,  999.0,  999.0,  999.0,  999.0,  999.0,  999.0,  999.0,  999.0,  999.0,  999.0,  999.0,  999.0,  999.0,  999.0,  999.0,  999.0,  999.0,  999.0,  999.0,  999.0
2000/11/16 02:00,  999.0,  999.0,    0.9,   -3.4,   -1.2,   -1.2,   -1.0,   -2.3,   -1.7,    0.2,    0.8,    1.6,  999.0,  999.0,    6.9,  999.0,  999.0,  999.0,  999.0,   21.9,   22.6,   25.2,  999.0,  999.0,   28.2,   28.1,  999.0,   31.5,  999.0,   34.0,   35.3,  999.0,  999.0,  999.0,   36.9,   39.2,   38.3,   41.8,   39.4,   42.1,  999.0,   42.0,   41.9,  999.0,  999.0,  999.0,  999.0,  999.0,  999.0,  999.0,  999.0,  999.0,  999.0,  999.0,  999.0,  999.0,  999.0,  999.0
2000/11/16 02:10,  999.0,  999.0,   -2.4,   -0.6,   -1.2,    1.2,   -0.0,    0.6,   -1.2,   -1.0,   -1.3,  999.0,  999.0,  999.0,  999.0,  999.0,  999.0,  999.0,  999.0,   25.9,   25.7,   25.0,   29.6,  999.0,  999.0,   30.8,  999.0,   33.7,   36.4,   33.6,   36.0,   38.1,   38.6,   41.3,   39.3,   40.2,   41.0,   41.1,   41.4,   41.8,   41.3,   41.6,   41.6,   41.3,   41.8,   41.4,   41.5,   42.4,   41.1,   42.1,  999.0,   42.3,   41.9,  999.0,   42.1,   41.7,  999.0,   41.8
2000/11/16 02:20,  999.0,   -0.8,   -1.3,   -1.6,   -1.0,    0.7,    0.5,    0.2,   -1.6,   -2.0,    0.8,    1.3,   -1.0,    0.2,  999.0,  999.0,  999.0,  999.0,  999.0,  999.0,   23.0,   27.5,   29.5,   29.3,   30.8,   31.8,  999.0,   33.3,  999.0,  999.0,  999.0,  999.0,  999.0,   38.7,  999.0,  999.0,   41.9,  999.0,  999.0,   41.3,  999.0,   41.7,  999.0,   41.2,  999.0,  999.0,   41.9,  999.0,  999.0,   42.0,  999.0,  999.0,   41.9,  999.0,  999.0,  999.0,  999.0,  999.0
2000/11/16 02:30,  999.0,  999.0,    2.3,   -1.5,    0.9,    0.4,   -0.3,    0.3,   -0.3,   -1.1,    0.2,    0.8,    0.9,    0.6,  999.0,  999.0,    8.7,  999.0,   22.8,   25.1,   25.8,  999.0,  999.0,  999.0,  999.0,  999.0,   31.7,   32.6,  999.0,   34.7,  999.0,   36.5,  999.0,  999.0,   39.8,   41.0,  999.0,   41.5,   41.7,   41.6,   41.6,   42.2,  999.0,  999.0,   41.5,   42.3,   41.6,   41.7,   41.9,   42.3,  999.0,   41.5,   41.3,   41.5,   41.3,   41.5,   41.7,   41.5
2000/11/16 02:40,  999.0,  999.0,  999.0,   -2.0,   -1.2,   -0.7,   -0.5,   -0.1,   -0.3,   -0.3,   -0.2,   -0.9,    0.5,    1.8,  999.0,  999.0,  999.0,  999.0,  999.0,  999.0,  999.0,  999.0,  999.0,  999.0,  999.0,  999.0,  999.0,  999.0,  999.0,  999.0,  999.0,  999.0,  999.0,  999.0,  999.0,   41.9,  999.0,  999.0,   41.3,   41.7,   41.2,   41.4,   42.4,   41.0,   41.2,  999.0,   41.5,  999.0,   41.5,   41.4,   41.5,   41.6,   41.8,   41.9,   41.4,   41.5,  999.0,   42.1
2000/11/16 02:50,  999.0,  999.0,   -1.2,    0.4,   -0.0,    0.1,   -0.5,  999.0,    5.9,   -0.3,    0.5,    0.9,    0.5,    0.4,   -0.2,  999.0,  999.0,  999.0,  999.0,  999.0,  999.0,  999.0,  999.0,  999.0,  999.0,  999.0,  999.0,  999.0,  999.0,   37.2,   38.8,   39.7,   41.2,   41.5,   42.0,   41.9,  999.0,   42.2,   42.0,   41.4,   41.3,   41.0,  999.0,   42.0,   41.7,   41.8,   41.3,   41.3,  999.0,   42.2,  999.0,   41.8,   41.8,   42.0,   42.3,   41.1,   41.8,  999.0
2000/11/16 03:00,  999.0,  999.0,  999.0,  999.0,   -0.7,   -1.1,    2.2,    0.2,   -0.2,   -0.3,   -0.5,    1.2,    0.6,    0.7,    0.5,  999.0,  999.0,  999.0,  999.0,  999.0,  999.0,  999.0,  999.0,  999.0,  999.0,  999.0,  999.0,  999.0,  999.0,  999.0,  999.0,   40.5,   40.9,  999.0,  999.0,   41.2,   41.9,   41.9,   41.5,   41.3,   41.4,   42.1,  999.0,   40.8,   41.2,  999.0,   41.9,   41.8,   41.9,   41.5,   41.6,   41.6,   42.2,   41.7,   41.2,   41.8,   42.3,  999.0
2000/11/16 03:10,  999.0,  999.0,    2.9,   -2.6,   -0.5,   -0.7,    0.2,    0.5,   -0.1,   -0.1,   -0.9,   -0.1,    0.6,    0.8,    0.1,  999.0,  999.0,  999.0,  999.0,  999.0,  999.0,  999.0,  999.0,  999.0,  999.0,  999.0,  999.0,  999.0,  999.0,  999.0,  999.0,  999.0,  999.0,  999.0,  999.0,  999.0,  999.0,  999.0,  999.0,  999.0,  999.0,  999.0,  999.0,  999.0,  999.0,  999.0,  999.0,  999.0,  999.0,  999.0,  999.0,  999.0,  999.0,  999.0,  999.0,  999.0,  999.0,  999.0
2000/11/16 03:20,  999.0,  999.0,   -2.2,    1.9,   -0.0,   -1.3,   -1.4,    0.4,    1.8,   -0.1,   -0.2,   -0.9,   -1.7,   -1.1,   -0.7,   -1.2,  999.0,  999.0,  999.0,  999.0,  999.0,  999.0,  999.0,  999.0,  999.0,  999.0,  999.0,  999.0,  999.0,  999.0,  999.0,  999.0,  999.0,  999.0,  999.0,  999.0,  999.0,  999.0,  999.0,  999.0,  999.0,  999.0,  999.0,  999.0,  999.0,  999.0,  999.0,  999.0,  999.0,  999.0,  999.0,  999.0,  999.0,  999.0,  999.0,  999.0,  999.0,  999.0
2000/11/16 03:30,  999.0,  999.0,    4.2,  999.0,   -0.1,   -1.4,   -1.2,   -1.7,   -0.8,   -1.7,   -1.3,   -0.5,    0.1,   -0.1,   -0.3,   -1.1,   -0.4,  999.0,  999.0,  999.0,  999.0,  999.0,  999.0,  999.0,  999.0,  999.0,  999.0,   37.7,   38.4,   39.4,   41.2,   37.4,   41.1,   40.6,   40.4,   41.4,   41.8,   41.8,   41.8,   41.6,   41.8,   42.5,  999.0,  999.0,   42.4,  999.0,   41.1,   41.4,   41.8,   41.7,   41.2,   42.0,   41.8,   41.2,   41.8,   41.2,   41.6,  999.0
2000/11/16 03:40,  999.0,  999.0,   -5.0,   -2.6,   -1.2,   -1.5,    0.7,    1.1,    1.2,   -0.6,    0.1,    0.3,    0.8,    0.6,  999.0,   -0.0,  999.0,  999.0,  999.0,  999.0,  999.0,  999.0,  999.0,  999.0,  999.0,  999.0,  999.0,  999.0,  999.0,   42.7,  999.0,  999.0,  999.0,   42.1,   41.3,   40.9,   41.5,   41.8,   41.5,   41.8,   41.8,   41.9,   41.4,  999.0,   41.8,   41.9,   41.5,   40.9,   41.6,   41.6,   41.1,  999.0,   41.7,  999.0,  999.0,   40.9,   41.6,   41.8
2000/11/16 03:50,  999.0,    1.7,    0.6,   -0.4,   -1.9,   -2.4,    0.4,   -0.1,   -0.2,   -1.4,   -1.6,    3.3,   -0.2,    1.1,  999.0,    0.3,  999.0,    6.0,  999.0,  999.0,  999.0,  999.0,  999.0,  999.0,  999.0,  999.0,  999.0,  999.0,   41.2,  999.0,  999.0,  999.0,  999.0,   42.1,   41.4,   42.1,  999.0,   41.8,   41.5,   41.2,  999.0,   41.5,   41.6,   41.7,   41.9,   42.3,   41.6,  999.0,  999.0,   41.8,   41.3,   41.2,   41.0,   41.6,   41.8,   41.8,   41.8,   41.9
2000/11/16 04:00,  999.0,  999.0,  999.0,   -1.2,   -1.3,   -0.4,   -1.0,   -0.3,   -1.5,   -1.0,   -1.1,  999.0,   -0.3,    0.3,   -0.8,   -0.9,  999.0,  999.0,  999.0,  999.0,  999.0,  999.0,  999.0,  999.0,  999.0,  999.0,  999.0,  999.0,  999.0,  999.0,   41.8,  999.0,   41.5,   41.3,   41.3,  999.0,   41.6,  999.0,   41.4,   41.9,   41.6,   41.7,   41.9,   41.8,   41.7,   41.8,   41.7,  999.0,   41.7,   41.7,   42.2,   41.9,   42.0,   41.2,   41.6,   42.0,   41.9,   42.1
2000/11/16 04:10,  999.0,  999.0,  999.0,  999.0,   -1.4,   -1.1,    0.5,    0.6,   -1.6,    3.2,    5.2,    0.7,    1.8,    1.6,    0.4,   -0.3,  999.0,  999.0,  999.0,  999.0,  999.0,  999.0,  999.0,  999.0,  999.0,  999.0,  999.0,  999.0,  999.0,  999.0,  999.0,   40.1,   41.7,   42.1,   42.2,  999.0,  999.0,   41.9,   42.0,   41.8,  999.0,   41.4,   41.6,  999.0,  999.0,  999.0,   41.4,  999.0,   41.1,   41.4,   41.7,  999.0,   41.8,   41.5,  999.0,   42.1,  999.0,  999.0
2000/11/16 04:20,  999.0,  999.0,    1.3,    2.2,    1.3,   -0.7,   -0.1,   -0.4,   -0.2,   -2.8,   -0.5,   -1.7,   -1.7,    0.6,    0.3,   -1.4,   -2.4,   -3.5,   -3.6,   -2.8,   -5.3,   -3.9,  999.0,  999.0,  999.0,  999.0,  999.0,  999.0,  999.0,  999.0,  999.0,  999.0,  999.0,  999.0,  999.0,  999.0,  999.0,  999.0,  999.0,  999.0,  999.0,  999.0,  999.0,   19.0,   19.2,  999.0,  999.0,  999.0,  999.0,  999.0,  999.0,  999.0,  999.0,  999.0,  999.0,  999.0,  999.0,  999.0
2000/11/16 04:30,  999.0,  999.0,  999.0,    1.2,   -1.3,   -0.9,    0.2,   -0.2,  999.0,    0.5,    0.2,    0.2,   -0.3,   -0.7,   -2.4,   -0.8,   -2.6,   -5.5,   -2.6,   -1.1,   -2.5,   -4.1,  999.0,  999.0,  999.0,  999.0,  999.0,  999.0,  999.0,  999.0,  999.0,  999.0,  999.0,  999.0,  999.0,  999.0,  999.0,  999.0,  999.0,  999.0,  999.0,  999.0,  999.0,  999.0,  999.0,  999.0,  999.0,  999.0,  999.0,  999.0,  999.0,  999.0,  999.0,  999.0,  999.0,  999.0,  999.0,  999.0
2000/11/16 04:40,  999.0,  999.0,  999.0,  999.0,    1.3,   -0.6,   -0.2,    0.2,   -0.7,  999.0,    2.3,    0.7,    0.9,    0.7,   -0.4,   -0.7,   -1.1,   -3.0,  999.0,  999.0,  999.0,  999.0,  999.0,  999.0,  999.0,  999.0,  999.0,  999.0,  999.0,  999.0,  999.0,  999.0,  999.0,  999.0,  999.0,  999.0,  999.0,  999.0,  999.0,  999.0,  999.0,  999.0,  999.0,  999.0,  999.0,  999.0,  999.0,  999.0,  999.0,  999.0,  999.0,  999.0,  999.0,  999.0,  999.0,  999.0,  999.0,  999.0
2000/11/16 04:50,  999.0,  999.0,  999.0,    4.2,    0.1,    0.7,   -1.8,    1.9,    1.2,   -1.4,    5.0,    2.2,    0.5,   -0.7,   -0.7,   -0.5,   -0.5,   -2.5,   -2.7,  999.0,  999.0,  999.0,  999.0,  999.0,  999.0,  999.0,  999.0,  999.0,  999.0,  999.0,  999.0,  999.0,  999.0,  999.0,  999.0,  999.0,  999.0,  999.0,  999.0,  999.0,  999.0,  999.0,  999.0,  999.0,  999.0,  999.0,  999.0,  999.0,  999.0,  999.0,  999.0,  999.0,  999.0,  999.0,  999.0,  999.0,  999.0,  999.0
2000/11/16 05:00,  999.0,  999.0,  999.0,   -0.3,    0.1,   -0.4,    2.9,    3.0,    1.9,    0.9,    4.7,    2.2,    1.1,   -0.7,  999.0,   -0.8,  999.0,   -1.6,   -2.3,  999.0,  999.0,  999.0,  999.0,  999.0,  999.0,  999.0,  999.0,  999.0,  999.0,  999.0,  999.0,  999.0,  999.0,  999.0,  999.0,  999.0,  999.0,  999.0,  999.0,  999.0,  999.0,  999.0,  999.0,  999.0,  999.0,  999.0,  999.0,  999.0,  999.0,  999.0,  999.0,  999.0,  999.0,  999.0,  999.0,  999.0,  999.0,  999.0
2000/11/16 05:10,  999.0,    2.3,    3.6,    1.9,   -0.0,   -0.5,    0.5,    2.7,    3.4,    3.4,    3.4,    0.5,    1.1,   -0.3,   -0.6,  999.0,   -0.4,   -0.5,  999.0,  999.0,  999.0,  999.0,  999.0,  999.0,  999.0,  999.0,  999.0,  999.0,  999.0,  999.0,  999.0,  999.0,  999.0,  999.0,  999.0,  999.0,  999.0,  999.0,  999.0,  999.0,  999.0,  999.0,  999.0,  999.0,  999.0,  999.0,  999.0,  999.0,  999.0,  999.0,  999.0,  999.0,  999.0,  999.0,  999.0,  999.0,  999.0,  999.0
2000/11/16 05:20,  999.0,   -0.6,   -1.2,   -0.8,    0.6,    0.7,    0.3,    1.6,    1.3,    1.6,    2.5,    1.1,  999.0,   -0.4,   -0.2,   -0.6,   -0.8,  999.0,  999.0,  999.0,  999.0,  999.0,  999.0,  999.0,  999.0,  999.0,  999.0,  999.0,  999.0,   12.9,  999.0,  999.0,  999.0,  999.0,  999.0,  999.0,  999.0,    7.2,  999.0,  999.0,    4.8,  999.0,  999.0,  999.0,  999.0,  999.0,  999.0,  999.0,  999.0,  999.0,  999.0,  999.0,  999.0,  999.0,  999.0,  999.0,  999.0,  999.0
2000/11/16 05:30,  999.0,  999.0,   -0.9,   -1.2,   -0.4,   -1.7,   -0.4,  999.0,    1.8,    0.5,    2.0,    3.4,    2.5,   -0.3,   -0.4,   -0.7,   -2.0,   -2.4,   -4.7,  999.0,  999.0,  999.0,  999.0,  999.0,  999.0,  999.0,  999.0,  999.0,  999.0,   11.9,  999.0,   11.4,  999.0,  999.0,  999.0,    8.9,   10.8,  999.0,    6.3,    8.6,    4.8,    4.4,    5.4,    4.6,  999.0,    3.1,    1.3,    4.0,  999.0,    3.8,    2.0,  999.0,  999.0,    1.0,    0.8,   -0.5,  999.0,  999.0
2000/11/16 05:40,  999.0,  999.0,  999.0,   -2.0,   -1.2,   -0.5,    2.0,   -2.1,   -0.9,   -1.6,    0.9,   -2.0,   -1.0,   -1.2,   -0.9,   -1.6,   -1.9,   -3.6,   -4.3,   -5.7,   -7.8,   -9.1,  999.0,  999.0,  999.0,  999.0,  999.0,  999.0,   11.4,    8.2,  999.0,  999.0,    6.1,    4.4,  999.0,    2.2,    1.2,  999.0,    0.8,  999.0,    0.4,    0.7,    1.1,    0.9,  999.0,  999.0,    0.6,    0.8,  999.0,  999.0,  999.0,  999.0,    0.3,    1.0,  999.0,    0.7,  999.0,    1.0
2000/11/16 05:50,  999.0,  999.0,   -1.9,   -2.6,   -0.7,   -4.8,   -3.2,   -0.0,   -1.7,    0.2,   -0.5,   -1.5,    0.8,    1.3,   -0.5,   -1.1,   -2.3,   -3.1,   -3.5,   -3.9,   -5.9,   -6.5,  999.0,  999.0,  999.0,  999.0,  999.0,  -13.7,  -13.9,  999.0,  999.0,  999.0,  999.0,  999.0,  999.0,  999.0,  999.0,  999.0,  999.0,  -27.1,  999.0,  999.0,  999.0,  999.0,  999.0,  999.0,  999.0,  999.0,  999.0,  999.0,  999.0,  999.0,  999.0,  -26.7,  999.0,  999.0,  999.0,  999.0
2000/11/16 06:00,  999.0,  999.0,  999.0,    2.6,   -2.4,   -0.6,    1.3,    2.0,    0.5,   -1.6,    2.1,    3.4,    3.2,    1.8,    0.1,   -0.0,   -1.7,   -2.5,   -3.2,   -5.3,   -5.3,   -5.2,   -5.8,  999.0,  999.0,  999.0,  999.0,   -7.6,  999.0,  999.0,  999.0,  -13.9,  999.0,  999.0,  -19.1,  -20.8,  999.0,  999.0,  999.0,  999.0,  999.0,  999.0,  999.0,  999.0,  999.0,  999.0,  999.0,  999.0,  999.0,  999.0,  999.0,  999.0,  999.0,  999.0,  999.0,  999.0,  999.0,  999.0
2000/11/16 06:10,  999.0,  999.0,   -0.2,  999.0,   -0.3,   -0.4,    2.9,    0.0,    0.5,    1.9,    4.0,    4.0,    3.5,    1.1,    2.5,    2.9,    1.7,    0.9,    0.2,   -2.5,   -6.8,   -9.1,  -10.1,  999.0,  999.0,   -6.9,  999.0,  999.0,  999.0,  999.0,  999.0,  999.0,  999.0,  999.0,  999.0,  999.0,  999.0,  999.0,  999.0,  999.0,  999.0,  999.0,  999.0,  999.0,  999.0,  999.0,  999.0,  999.0,    1.1,  999.0,  999.0,  999.0,  999.0,    0.7,    0.7,   -9.8,  999.0,    0.9
2000/11/16 06:20,  999.0,  999.0,  999.0,  999.0,   -1.0,  999.0,    4.3,  999.0,    0.5,   -1.3,   -1.0,   -0.2,   -0.4,   -2.4,  999.0,    2.2,    1.1,   -0.2,   -3.5,   -6.2,   -8.2,  -11.3,  -12.7,  -13.6,  -12.3,  999.0,  -16.2,  -17.6,  999.0,  999.0,  999.0,  999.0,  999.0,  999.0,  999.0,  999.0,  999.0,  999.0,    0.5,  999.0,    0.1,    1.0,    0.2,    0.7,    0.7,    1.0,    0.8,    1.0,    0.7,  999.0,    0.7,  999.0,    0.7,    0.5,    0.5,    1.0,    0.9,    1.3
2000/11/16 06:30,  999.0,  999.0,  999.0,   -4.8,   -2.6,   -1.8,    0.3,   -0.3,   -0.5,   -0.5,    1.8,    2.2,    3.2,   -3.4,    5.3,  999.0,  999.0,   -5.2,   -4.4,   -4.9,   -7.5,   -9.8,  -11.7,  -11.2,  -11.7,  999.0,  -15.2,  999.0,  999.0,  999.0,  999.0,  999.0,  999.0,  999.0,  999.0,   -0.1,    0.6,    0.4,    0.6,    0.9,    0.6,    0.8,    0.6,  -20.1,    0.6,    0.7,  999.0,  -10.0,  -20.3,    0.6,    0.4,    0.6,    1.0,    0.8,  -20.8,    0.8,    1.0,    1.0
2000/11/16 06:40,  999.0,  999.0,  999.0,   -1.3,    0.9,   -2.0,    1.9,   -0.4,   -0.5,   -0.7,   -3.4,  999.0,   -3.1,   -2.8,  999.0,   -4.1,   -4.9,   -5.4,   -6.3,   -6.7,   -8.0,  -10.5,  -10.7,  -11.7,  999.0,  999.0,  -14.3,  999.0,    5.1,  999.0,  999.0,    0.9,    0.9,  999.0,  999.0,    1.1,    0.8,  999.0,    1.1,   -2.5,    0.7,  -41.6,  -20.4,    0.7,    1.2,  -41.5,  -41.7,    0.5,    0.9,  -21.2,  -13.5,  -21.4,  -20.6,  -20.6,  999.0,  -19.9,  -20.6,    0.2
2000/11/16 06:50,  999.0,   -1.1,   -0.8,   -0.0,   -0.7,   -0.8,   -0.5,   -1.3,   -1.2,   -1.4,    0.1,   -2.8,   -2.7,   -1.3,   -2.1,   -3.4,   -3.7,   -5.6,  999.0,   -9.4,  -10.4,  -12.6,  -13.8,  999.0,  999.0,  999.0,  999.0,  999.0,  999.0,  999.0,    1.2,    0.8,    1.1,    0.4,  999.0,    0.6,  999.0,    0.8,    1.2,    1.2,    0.7,    0.6,    0.9,   -0.2,    0.6,    1.3,    1.3,    0.2,    0.6,    1.2,    0.9,    0.9,    1.2,    0.2,    0.5,    0.9,    0.5,    1.1
2000/11/16 07:00,  999.0,   -1.5,   -2.3,   -1.1,   -1.2,   -0.2,   -0.2,   -0.1,   -0.5,   -0.8,   -3.1,   -3.9,   -3.1,   -0.1,  999.0,  999.0,  999.0,  999.0,  999.0,  999.0,  999.0,  999.0,  999.0,  999.0,  999.0,  999.0,  999.0,  999.0,  999.0,  999.0,  999.0,  999.0,    0.9,    0.7,    0.7,    0.3,    0.7,    0.7,    0.4,    1.0,    1.6,    0.9,    1.1,    0.4,    0.5,    0.5,    1.0,    0.7,    0.8,    0.4,    0.9,    0.4,    0.5,    0.9,    0.9,    0.3,    0.3,    0.4
2000/11/16 07:10,  999.0,   -0.1,   -1.1,   -0.9,   -0.8,    0.1,    0.1,  999.0,    0.3,   -1.5,   -2.9,   -3.2,  999.0,   -1.9,  999.0,  999.0,  999.0,  999.0,  999.0,  999.0,  999.0,  999.0,  999.0,  999.0,  999.0,    3.2,  999.0,  999.0,  999.0,  999.0,    0.3,    0.8,    0.7,    0.9,    0.8,    0.7,    0.3,    0.4,    1.3,    0.9,    0.7,    1.6,    1.2,    0.8,    0.7,    0.9,    0.6,    0.9,  999.0,    1.0,    1.1,    0.9,    0.5,    0.4,    0.2,    0.1,    0.3,    0.4
2000/11/16 07:20,  999.0,   -1.3,   -2.6,   -1.8,   -0.4,   -0.4,   -0.4,    0.6,    1.4,    0.3,   -1.3,   -2.4,  999.0,  999.0,  999.0,  999.0,  999.0,  999.0,  999.0,  999.0,  999.0,  999.0,  999.0,  999.0,  999.0,    1.1,  999.0,    0.3,    0.7,    0.7,    0.4,  999.0,    0.1,    0.5,  999.0,    0.4,    0.1,  999.0,    0.9,    0.4,    0.5,    1.0,    0.7,    0.7,    0.9,    0.8,    0.9,   -0.2,    0.9,    1.1,    1.9,    0.5,    1.0,  999.0,    0.7,    0.5,    0.9,    1.3
2000/11/16 07:30,  999.0,   -2.8,   -2.5,   -1.7,   -0.7,   -0.6,   -0.3,   -0.2,   -0.1,   -0.5,   -1.0,   -2.7,  999.0,    9.6,    9.9,  999.0,  999.0,  999.0,   17.2,  999.0,  999.0,   11.3,    9.1,    8.0,    5.2,    6.1,    3.4,    1.6,    0.7,    0.9,    0.8,    0.7,  999.0,    0.8,    0.7,    0.7,    0.7,    0.6,    0.7,    0.8,    0.6,    0.5,    0.8,    0.8,    0.5,    0.9,    0.9,    0.2,    0.7,    0.5,    0.8,    0.5,    0.7,    0.6,    0.5,    0.8,    0.5,    0.9
2000/11/16 07:40,  999.0,   -0.6,    0.3,   -0.1,   -0.7,    0.0,    0.8,    1.0,    1.0,    0.2,   -1.3,   -3.2,   -3.3,   -4.3,   -1.8,  999.0,  999.0,  999.0,  999.0,   16.2,   14.2,   12.6,   11.2,    9.1,    7.4,    5.8,    3.7,    0.9,    1.4,    0.7,    0.5,    0.4,    0.1,    0.6,    0.5,  999.0,    0.8,    0.4,  999.0,    0.7,    0.5,  999.0,  999.0,    0.4,    0.6,    0.8,    0.8,   -0.1,    0.6,    0.6,    0.5,    0.6,    1.0,    0.4,    0.2,    0.3,    0.6,    0.0
2000/11/16 07:50,  999.0,   -0.1,    0.3,    0.6,    0.8,    2.3,    2.1,    1.9,    0.5,   -0.3,   -1.1,   -1.4,   -2.9,   -3.9,    0.2,  999.0,  999.0,  999.0,  999.0,  999.0,  999.0,  999.0,  999.0,  999.0,  999.0,  999.0,  999.0,  999.0,  999.0,  999.0,  999.0,  999.0,  999.0,  999.0,  999.0,  999.0,  999.0,  999.0,    0.7,    0.6,  999.0,  999.0,    0.2,    1.1,  999.0,  999.0,    0.6,    0.3,    0.4,    0.7,    0.6,    0.2,    1.1,    1.1,    1.0,    0.3,    0.6,    0.7
2000/11/16 08:00,  999.0,   -0.2,    0.6,    0.8,    0.8,    0.5,    2.2,    1.3,    0.3,  999.0,   -1.2,   -2.4,   -3.8,   -2.4,  999.0,  999.0,  999.0,  999.0,  999.0,  999.0,  999.0,  999.0,  999.0,  999.0,  999.0,  999.0,  999.0,  999.0,  999.0,  999.0,  999.0,  999.0,  999.0,  999.0,  999.0,  999.0,  999.0,  999.0,  999.0,  999.0,  999.0,  999.0,  999.0,  999.0,  999.0,  999.0,  999.0,  999.0,  999.0,  999.0,  999.0,  999.0,  999.0,  999.0,  999.0,  999.0,  999.0,  999.0
2000/11/16 08:10,  999.0,    0.0,   -0.2,    1.4,    1.9,    1.1,   -3.0,   -3.5,    1.5,    1.8,   -1.5,   -3.3,   -2.5,   -1.8,   -2.5,  999.0,  999.0,  999.0,  999.0,  999.0,  999.0,  999.0,  999.0,  999.0,  999.0,  999.0,  999.0,  999.0,  999.0,  999.0,  999.0,  999.0,  999.0,  999.0,  999.0,  999.0,  999.0,  999.0,  999.0,  999.0,  999.0,  999.0,  999.0,  999.0,  999.0,  999.0,  999.0,  999.0,  999.0,  999.0,  999.0,  999.0,  999.0,  999.0,  999.0,  999.0,  999.0,  999.0
2000/11/16 08:20,  999.0,    0.1,    0.3,    2.5,    3.4,    2.3,    0.6,    1.3,    1.2,  999.0,   -1.6,   -2.1,   -1.8,   -1.9,   -2.7,  999.0,  999.0,   -2.5,  999.0,  999.0,  999.0,  999.0,    0.8,  999.0,   -8.4,  999.0,  999.0,  999.0,   -7.7,  999.0,  999.0,   -2.7,   -0.9,   -1.7,  999.0,   -1.0,   -1.1,   -0.4,  999.0,   -0.5,  999.0,    0.2,   -0.3,   -0.7,   -0.4,   -0.8,   -0.8,   -0.6,   -0.6,   -0.6,   -0.7,   -7.2,  -18.6,   -0.6,   -0.6,   -0.6,   -0.8,   -0.8
2000/11/16 08:30,  999.0,    0.9,    0.8,    1.1,    1.5,    1.3,    0.6,   -0.1,   -0.4,    1.5,   -2.2,   -2.5,  999.0,   -2.8,   -2.6,  999.0,  999.0,  999.0,  999.0,  999.0,  999.0,  999.0,  999.0,  999.0,   -8.0,  999.0,  999.0,  999.0,  999.0,  999.0,   -1.0,   -0.7,   -0.6,   -0.5,  999.0,   -0.6,   -0.9,   -1.1,   -1.1,   -0.9,  999.0,   -0.9,  999.0,   -0.5,   -0.8,   -0.5,   -0.4,  999.0,   -0.6,  999.0,   -0.8,   -0.2,   -0.8,   -1.3,  999.0,   -0.2,   -0.8,   -1.0
2000/11/16 08:40,  999.0,    1.6,    0.6,    1.1,    0.2,   -0.2,    1.3,    4.0,    1.6,  999.0,   -2.7,  999.0,    0.3,   -2.2,    1.7,  -21.3,   -3.9,   -3.8,  999.0,   26.4,   27.7,   29.6,   12.7,   32.6,   34.0,   35.1,  999.0,  999.0,  999.0,  999.0,  999.0,  999.0,  999.0,  999.0,  999.0,  999.0,  999.0,  999.0,  999.0,  999.0,  999.0,  999.0,  999.0,  999.0,  999.0,  999.0,  999.0,  999.0,   -0.3,  999.0,    0.1,   -0.8,   -1.3,   -0.6,   -0.8,   -0.9,   -1.1,  999.0
2000/11/16 08:50,  999.0,   -0.3,    2.0,    2.3,   -0.1,    0.4,    0.9,    0.6,   -1.7,   -2.2,   -1.3,   -2.3,   -2.0,   -0.5,   -2.8,   -1.4,  999.0,  999.0,  999.0,  999.0,  999.0,   -1.7,  999.0,  999.0,  999.0,  999.0,  999.0,  999.0,  999.0,  999.0,  -41.7,  999.0,  999.0,  -41.7,  -41.5,  999.0,  999.0,  999.0,  -41.3,  999.0,  -41.3,  999.0,  999.0,  999.0,  999.0,  999.0,  999.0,  999.0,  999.0,   -0.7,   -0.2,   -0.5,  999.0,   -0.7,  999.0,   -0.4,   -0.2,   -0.4
2000/11/16 09:00,  999.0,   -1.6,    0.5,    0.3,   -0.0,   -0.2,   -1.6,   -1.6,   -0.1,   -1.4,   -0.6,   -2.8,  999.0,  999.0,  999.0,  999.0,  999.0,  999.0,  999.0,  -12.7,   -1.2,  999.0,    5.8,  999.0,  999.0,  999.0,  999.0,  -38.5,  -39.5,  -41.1,  999.0,  999.0,  999.0,  999.0,  999.0,  999.0,  999.0,  999.0,  999.0,   -0.5,  999.0,  999.0,  999.0,  999.0,   -0.2,  999.0,  -21.4,   -0.6,   -0.4,  -11.2,   -2.6,  -12.9,   -1.1,   -8.1,    8.2,  -13.6,    5.5,   18.6
2000/11/16 09:10,  999.0,   -0.0,    1.0,   -0.7,   -0.1,   -1.1,   -2.1,   -2.2,   -3.3,   -1.0,   -4.1,   -3.0,  999.0,  999.0,   -6.4,  999.0,  999.0,  -20.8,  999.0,   -5.7,   -7.2,  -24.3,  999.0,  -27.1,  -21.1,  -29.5,  999.0,  999.0,  999.0,  999.0,  999.0,  999.0,  999.0,  999.0,  999.0,  999.0,    7.3,  999.0,  999.0,    0.3,    0.8,    0.2,    0.5,  999.0,    0.9,    0.7,  999.0,  999.0,   26.9,   37.7,   41.1,    3.8,  999.0,   41.7,   21.5,   31.8,   21.1,   36.7
2000/11/16 09:20,  999.0,   -2.0,   -0.7,   -0.5,   -0.4,   -1.7,   -1.6,   -0.2,   -0.2,   -3.8,   -3.0,  999.0,  999.0,   -3.1,   -1.3,  -21.5,  -21.1,  999.0,  -17.5,  -20.2,  -12.8,  -12.7,  999.0,  999.0,  999.0,  999.0,  999.0,  999.0,  999.0,  999.0,  -10.9,   -9.8,    0.2,   -7.9,   -6.6,   -5.6,    4.1,    4.9,   -3.6,   41.5,   41.8,   42.0,   41.7,   41.9,   20.8,   20.7,   41.6,   -1.0,   42.2,   20.6,   20.4,   41.5,   13.6,   41.9,   20.7,   13.4,   20.4,   41.5
2000/11/16 09:30,  999.0,    3.1,    1.0,    0.8,   -1.5,   -2.9,   -2.7,   -3.8,   -3.8,   -2.4,   -2.5,   -4.5,   -4.2,   -0.8,  999.0,  999.0,  -20.5,  -18.6,  -18.0,  -16.7,  999.0,  -13.7,  -12.8,  -11.9,  -10.0,   -8.2,  999.0,   -6.2,   -4.8,   -3.5,  999.0,  999.0,  999.0,  999.0,  999.0,   14.0,   14.8,   16.1,   15.6,  999.0,  999.0,  999.0,   41.6,   41.4,   -1.4,   20.3,   -0.7,   -0.7,  999.0,   41.8,   -0.9,   -0.6,  999.0,   20.7,   -0.7,   27.8,   41.9,   41.7
2000/11/16 09:40,  999.0,    1.3,    0.3,    0.3,   -0.6,   -1.9,   -1.8,   -1.1,   -3.1,   -3.3,   -4.2,   -2.8,  999.0,  999.0,  -20.6,  -21.8,  -19.3,  -15.2,  -18.0,   -6.6,  -14.3,  -14.6,  -12.9,  -12.1,  -11.6,   -3.0,   -8.2,   -5.8,   -4.7,   -2.3,   -2.1,   -1.1,   -0.3,   -0.5,   -0.7,  999.0,   -9.3,   -7.1,    6.6,   -1.8,  -35.6,  -19.9,  -41.9,  -21.0,  -20.8,  -41.1,  -41.5,   -1.1,  -41.5,  -41.9,  -42.0,  -21.3,  -40.7,  -30.9,    5.8,  -41.7,   42.6,    6.6
2000/11/16 09:50,  999.0,   -0.7,    0.9,    0.5,   -0.2,   -0.4,   -1.6,   -0.5,   -2.8,   -3.8,   -3.2,   -4.0,   -3.2,  999.0,  999.0,    0.8,  999.0,  -12.8,  -12.4,  999.0,   -9.2,  999.0,  999.0,  999.0,   11.6,   -6.9,   -8.5,   -4.4,   -5.6,   -5.0,   -5.4,   20.7,   -0.5,    9.4,   10.0,    6.8,   -0.7,   -0.6,    9.9,   13.8,   20.8,   42.2,   13.4,   13.4,    9.8,   31.1,   13.6,   13.5,   41.8,   41.8,    0.1,   42.0,   13.7,   10.2,   -0.4,   41.5,   20.1,   14.0
2000/11/16 10:00,  999.0,    0.8,    3.2,    2.4,    0.8,    0.3,    0.7,    1.5,   -1.1,   -3.5,   -4.5,   -1.4,    0.5,  999.0,  999.0,  999.0,   -1.3,  999.0,  999.0,  999.0,  999.0,    6.8,  999.0,  999.0,  999.0,   -8.4,  999.0,   12.6,   -4.4,   -1.7,   13.0,   -0.9,   11.9,   -0.1,    2.9,   -0.6,   -0.9,   -1.0,   -6.8,  -16.8,   -0.4,   -0.8,   -3.2,   -7.9,  -10.9,   -0.5,  -15.0,   -0.8,   -0.9,    3.6,   -5.3,   -1.0,   -2.2,  -18.2,  999.0,    1.3,  -14.3,   -2.6
2000/11/16 10:10,  999.0,    4.5,    4.5,    1.5,    1.5,   -0.1,    0.5,    0.8,   -2.0,   -4.4,  -13.7,   -4.8,  -14.6,  -22.1,  -13.2,  -22.6,  -15.8,  999.0,  -29.8,  -32.7,  -42.0,  -34.9,  -30.7,  -30.1,  -41.5,  -31.5,  -37.0,  -42.1,  -41.8,  -41.8,  999.0,  -26.1,  -19.7,  999.0,  -42.0,  -41.7,  999.0,  -21.4,  -41.8,  -12.4,  -21.1,  -41.9,  -24.9,  -15.1,  -23.4,  -28.4,   -0.6,  -38.4,  -28.4,  -20.3,  -41.7,    0.7,  -20.9,  -28.4,  -41.7,  -41.7,  -21.2,  -11.2
2000/11/16 10:20,  999.0,    1.5,    1.6,    2.0,    0.5,    0.1,   -0.9,   -0.3,   -5.8,   -4.7,  999.0,  999.0,  -14.4,  -12.3,  -21.5,   -8.2,   -1.8,   -7.0,    1.9,   -9.2,   -0.2,  999.0,  999.0,   -6.8,   -9.8,  999.0,  -14.7,   10.3,   11.1,    9.5,  -24.7,   -7.6,    8.4,  -32.9,    3.2,  999.0,   -0.9,   34.1,   31.5,   -7.9,   21.4,    5.6,  -14.8,    7.7,   41.6,   41.7,  -42.1,    9.0,   -2.5,   -7.8,   -0.8,   10.2,    7.6,   10.8,   41.2,  999.0,  -10.2,  -10.0
2000/11/16 10:30,  999.0,    1.2,    0.5,    0.6,    0.0,   -0.7,   -0.2,   -2.9,   -3.2,   -3.3,  999.0,  999.0,  999.0,  999.0,  999.0,  999.0,   17.0,   13.9,   10.4,    6.8,    3.7,    1.1,  999.0,  999.0,    5.7,   10.1,  999.0,   12.2,    3.6,    6.5,   28.3,   -6.0,  999.0,  999.0,   30.9,  999.0,   31.9,  999.0,   32.8,   -1.9,  -42.3,   -3.5,   -3.2,   35.7,   36.8,  -41.1,   37.6,   38.5,   39.1,  999.0,   40.1,   40.7,   20.8,   21.3,  999.0,   21.3,   20.9,   40.4
2000/11/16 10:40,  999.0,    1.1,    0.7,    0.8,    0.4,    0.0,   -0.8,   -0.2,    0.1,   -2.1,  -10.8,   -2.5,  -21.4,  -20.9,  -20.3,  -19.9,  -18.7,  -17.6,  -16.2,  -15.1,  -14.4,  -13.3,  -11.7,  999.0,   11.4,  999.0,    9.9,   30.9,   31.8,   25.7,   -3.5,   20.3,   20.6,   26.1,   35.7,   29.3,   16.7,   29.8,   17.1,   38.9,   28.4,   39.4,   39.2,   25.8,   19.6,   19.4,   19.8,   41.3,   41.9,   41.3,   41.6,   42.0,   41.8,   42.1,   41.9,   42.1,   42.0,   41.8
2000/11/16 10:50,  999.0,    1.3,    1.5,    1.7,    1.3,    1.4,    1.8,    0.4,    0.5,  999.0,  999.0,   -9.8,   -3.1,    2.7,  -11.8,  -22.8,  -19.5,  -29.0,  999.0,  -31.6,  999.0,  -41.7,  999.0,  -20.5,  -20.6,  -20.6,    0.8,  -21.3,    1.0,  999.0,    0.8,  999.0,  -23.9,  999.0,    0.4,  999.0,    0.7,    0.3,  999.0,    0.4,    0.1,  -20.5,   10.5,   30.0,   -7.3,  -11.7,  999.0,   22.9,   28.3,   36.8,   17.5,   24.8,   24.1,   42.0,   40.6,   31.4,   31.7,   21.7
2000/11/16 11:00,  999.0,    4.5,    1.9,    2.2,    3.4,    1.4,    1.3,    2.1,    1.2,   -1.1,   -3.9,  999.0,  999.0,  999.0,  999.0,  999.0,  999.0,  999.0,  -28.2,  -17.7,  -32.1,  -33.8,  999.0,  999.0,   28.1,   28.6,   29.6,   29.7,  999.0,   32.0,   32.1,   42.2,   37.9,   34.4,   34.8,   35.3,   36.6,  999.0,  999.0,  999.0,  999.0,  999.0,  999.0,  999.0,  999.0,  999.0,  999.0,  999.0,   41.7,   41.8,   40.9,   42.0,   41.6,   41.5,   41.8,   41.6,   41.6,   41.9
2000/11/16 11:10,  999.0,    2.1,    1.7,    2.0,    1.4,    2.3,    2.8,    1.7,    1.2,    0.2,   -2.0,  999.0,  999.0,    2.1,  999.0,   -5.4,  -15.1,  -26.2,  999.0,  -30.3,  -16.5,  -17.5,   -9.0,  -15.9,  -20.4,  -28.1,  -16.9,  -13.7,   -0.8,  -15.6,  999.0,   -0.7,   -5.5,   -0.5,   -0.7,   -4.3,   17.0,   -4.2,   11.5,   11.6,   11.8,   -2.7,   20.3,  999.0,   12.8,   20.2,   41.9,   41.4,   27.7,   31.2,   31.4,   41.9,   35.0,   30.7,   20.2,   42.3,   42.2,   20.1
2000/11/16 11:20,  999.0,    4.0,    4.3,    3.2,    0.8,    0.5,    0.9,   -0.5,   -0.5,   -0.1,   -1.0,   -3.1,   -2.2,   -6.6,  999.0,  999.0,  999.0,   11.2,   10.6,  -13.4,  -11.4,  999.0,   -6.5,   -5.7,   -6.7,   -3.5,   -1.0,   -2.9,   -1.7,   -1.6,   -1.0,   -0.9,   -0.8,   -0.8,   -1.0,   -0.4,   -0.8,   -0.3,   -0.7,  999.0,   -0.7,   -0.8,  999.0,  999.0,   -0.6,   -0.3,   -0.7,  999.0,  999.0,  999.0,   41.9,  999.0,   41.5,   41.6,   42.0,   41.7,   42.1,   42.1
2000/11/16 11:30,  999.0,    0.3,    1.3,    2.0,    0.4,   -0.1,    0.4,    0.7,    0.2,    0.7,    0.0,   -0.8,  999.0,   -6.6,  -29.4,  999.0,  -36.3,  -39.3,  -35.4,  999.0,  -41.9,  -35.7,  -30.3,  -30.8,  -30.5,  -28.6,  999.0,  -17.0,  -15.3,  -13.5,   -4.9,  -10.8,  -21.0,  -21.7,  -10.7,   -2.2,  -10.9,  -16.8,  -38.9,    5.9,  -13.5,  -33.1,  -30.7,   15.4,  -26.5,   -3.4,   19.8,   22.0,   22.4,   25.5,   28.2,   10.0,   18.1,   33.9,   32.0,   37.9,   30.8,   35.2
2000/11/16 11:40,  999.0,    2.9,    2.5,    3.8,    2.6,    1.8,    1.5,    1.3,    0.1,    0.2,   -1.0,   -4.7,   -3.3,  999.0,  999.0,  -15.6,  -19.4,   -5.4,  -16.6,  999.0,  999.0,  -13.9,  -12.5,   -7.0,   -4.5,  -12.7,    1.9,   -4.4,   37.3,    4.6,    5.4,   -1.0,   -0.3,   10.6,   -6.2,   42.1,  -18.6,    1.6,   26.2,   28.8,   31.6,    1.4,   13.8,  -27.2,    9.8,  -16.5,   15.9,   -4.8,   42.9,   20.8,   31.2,   34.7,   41.9,   20.4,   41.7,   41.8,   30.9,   31.3
2000/11/16 11:50,  999.0,    1.3,    1.2,    1.5,    1.0,   -0.6,   -1.0,   -1.3,   -1.3,   -1.0,   -1.8,   -2.2,  999.0,  999.0,  -19.5,  -18.5,  999.0,   -3.8,   -0.7,  999.0,  999.0,  999.0,  999.0,  999.0,   37.0,   38.9,   39.2,   28.8,   42.1,   41.8,   41.4,   41.8,   42.1,   41.8,   42.4,   41.2,   39.8,   41.8,   41.9,   32.7,   30.6,   33.3,   31.6,   41.5,   28.9,   21.5,   29.3,   27.6,   32.9,   37.8,   41.8,   42.4,   42.4,   41.9,   42.1,   42.1,   41.8,   42.6
2000/11/16 12:00,  999.0,    1.9,    1.6,    2.0,    1.1,    0.1,   -0.6,   -1.5,   -1.1,   -1.7,   -0.1,   -8.4,  -12.4,  -14.2,  -15.2,  -17.8,  -18.0,  -14.4,  -13.1,  999.0,  999.0,  999.0,  -15.1,  -41.8,  -21.4,  999.0,   20.6,  -21.4,    6.2,  -21.7,    7.0,   -0.1,   14.1,   -0.4,   42.0,   -5.1,    2.4,  -13.6,    0.3,    0.1,   21.3,   31.5,   31.4,   -0.8,   41.8,   41.3,   42.0,   29.8,   22.5,   -1.0,   -0.6,   -1.2,    1.3,    0.2,    0.5,   -0.1,    0.9,   -1.2
2000/11/16 12:10,  999.0,    2.9,    2.5,    2.9,    2.8,    1.5,    2.1,    1.6,    0.4,   -0.1,   -1.5,   -3.5,  999.0,  -23.2,  999.0,  -28.3,  999.0,  -33.4,  999.0,  999.0,  -41.3,  -41.4,  -41.2,   14.1,   30.8,    4.7,    5.9,    6.8,  999.0,   10.6,  -42.0,    7.3,   21.2,    0.9,    7.3,   16.7,    3.5,  -21.6,   12.0,   16.6,    6.8,   25.9,   14.6,   13.4,   19.4,   23.9,   17.4,   31.1,   32.5,   30.5,   20.9,   34.2,   41.9,   15.0,   27.1,   31.1,   10.6,   14.1
2000/11/16 12:20,  999.0,    1.5,    1.1,    1.8,    1.6,    1.5,   -0.4,   -0.4,   -0.8,   -0.6,    1.7,  999.0,  -21.8,  -21.3,  -23.6,  -20.3,  -22.9,  -23.5,  -15.9,  -21.5,  -26.5,  -41.1,  -21.0,  -20.5,  -15.0,  -19.3,  -18.6,  -11.3,  -10.4,  -24.8,  -16.0,  -12.7,   -0.6,  -19.5,  -10.5,   -1.1,   -5.6,  -13.5,  -17.9,  -13.6,   -4.3,   -3.2,   -4.0,   -1.7,   -1.1,   -0.9,    2.7,    1.1,  999.0,  999.0,   -0.5,    9.4,    9.7,    4.8,    1.1,   10.2,   15.5,   20.2
2000/11/16 12:30,  999.0,    4.8,    5.0,    5.1,    3.9,    2.2,    2.5,    2.2,   -1.3,   -2.5,   -3.4,   -9.0,  999.0,  -22.0,   35.6,  -28.6,  -14.0,   17.5,  -14.4,  -16.0,  -14.1,  -21.0,  -28.7,   -5.7,  -13.7,  -14.1,  -14.1,  -14.0,  -14.2,  -20.0,  -20.7,   -2.3,   -0.4,  -26.4,  -28.1,  -21.3,  -28.3,  -28.1,  -28.2,  -42.0,  -21.3,  -21.3,  -21.3,   -1.2,   -6.1,   -9.9,  -37.4,  -28.0,  -24.3,  -20.9,  -17.5,   -7.5,  -21.2,  -22.4,  -22.7,  -41.7,  -14.7,  -24.2
2000/11/16 12:40,  999.0,    1.4,    0.3,    2.2,    0.8,   -0.7,    3.9,   -1.9,   -0.1,   -1.7,   -1.2,   -2.8,  999.0,   -3.1,  999.0,    0.1,  -39.7,    1.4,  -15.3,  -22.2,  -26.9,  -38.2,  -40.0,  -41.5,  -23.7,  -20.6,  -20.8,  -28.8,  -41.9,  -21.1,  -21.3,  -41.3,  -27.9,  -41.2,  999.0,  -27.7,   -4.2,  -20.8,  -24.0,  -27.1,  -32.6,  -21.2,  -42.2,  -28.2,  999.0,  -17.2,  -41.8,  -29.9,  -16.2,  -30.5,   -5.1,  -22.9,  -23.9,  -26.5,  -28.2,  -21.0,  -28.3,   -1.6
2000/11/16 12:50,  999.0,   -1.5,    2.3,    3.3,    3.1,    2.6,    2.4,    3.3,    5.1,    3.1,    2.2,    1.5,    2.5,   -1.3,    1.1,  999.0,   10.6,   12.1,  -21.5,  999.0,  999.0,  -18.6,  -28.2,  -34.6,  -41.8,  -41.7,  -36.3,  -41.7,  -26.0,  -34.2,  -41.7,  -41.4,  -42.0,  -41.6,  -42.2,  -41.6,  -41.8,  -41.5,  -41.6,  -42.5,  -41.8,  -42.0,  -41.7,  999.0,  -42.2,    0.1,  -41.7,  -29.5,  -24.2,  -20.4,  -32.2,   38.9,  -11.2,  -30.8,  -20.1,  -28.0,  -34.6,  -41.8
2000/11/16 13:00,  999.0,  999.0,  999.0,  999.0,    0.6,    1.9,    2.7,    3.6,    1.9,    1.2,    0.5,   -1.5,   -2.8,   -1.7,   -3.6,   -6.5,   -7.4,  -12.3,  -15.4,  -17.6,  -19.8,  999.0,  -29.0,  -41.7,  -41.7,  -41.9,  999.0,  -41.7,  -42.2,  -42.0,  -42.1,  -41.3,  -41.5,  -41.5,  -41.3,  -41.8,  -41.6,  -41.7,  999.0,  -41.8,  -41.8,  -41.7,  -41.8,  -41.8,  -41.8,  999.0,  -41.7,  -28.5,  -42.2,  999.0,  -22.6,  -42.4,  -23.9,  -40.6,  -31.6,  -21.8,  -31.7,  -36.3
2000/11/16 13:10,  999.0,  999.0,  999.0,  999.0,  999.0,  999.0,  999.0,  999.0,  999.0,  999.0,  999.0,  999.0,  999.0,  999.0,  999.0,  999.0,  -17.3,  999.0,  999.0,    0.7,    0.2,   -0.1,  -14.9,  -15.3,  -15.5,  -15.4,  -15.4,  -15.4,  -15.9,  -15.1,  -15.3,  -14.6,  -14.5,  -14.1,  -13.8,  -14.3,  -13.9,  -13.0,  -11.8,  -11.6,  -11.5,  -11.3,  -11.3,   -9.7,  -11.4,  -10.3,   -8.5,   -6.3,   -4.0,   -2.2,   -0.2,   -0.7,   -2.8,   -4.5,   -5.3,   -6.4,   -5.4,   -4.9
2000/11/16 13:20,  999.0,    2.7,    3.9,    1.0,    2.7,    0.5,    0.9,    1.1,    1.1,    0.3,   -3.4,   -1.3,   -2.9,   -3.5,   -4.0,   -4.7,   -3.7,   -3.6,   -2.9,   -3.1,   -5.2,   -4.8,   -3.5,   -2.9,   -5.7,   -5.1,   -4.2,   -3.8,   -3.2,   -2.8,   -3.8,   -4.4,   -4.4,   -4.0,   -5.1,   -4.4,   -5.1,   -4.3,   -5.1,   -6.3,   -5.8,   -4.6,   -4.6,   -4.5,   -3.2,   -3.1,   -3.1,   -2.7,   -3.8,   -4.8,   -4.3,   -4.3,   -4.9,   -4.7,   -5.8,   -6.4,   -6.2,   -4.9
2000/11/16 13:30,  999.0,    3.6,    1.4,   -0.7,    1.5,    1.9,    2.3,    3.4,    1.4,   -0.0,   -0.4,   -2.0,   -2.2,   -0.9,   -1.1,   -0.2,    0.3,    1.0,   -0.2,   -2.2,   -3.3,   -2.5,   -3.3,   -6.5,   -7.2,   -6.9,   -3.8,   -4.0,   -4.2,   -3.8,   -3.4,   -4.8,   -6.2,   -5.8,   -5.4,   -1.9,   -0.9,   -1.4,   -1.1,   -2.9,   -4.0,   -0.5,   -3.6,   -3.2,   -2.7,   -3.8,   -2.5,   -1.5,   -1.7,   -1.1,   -2.3,   -1.5,   -0.8,   -1.3,   -1.9,   -1.4,   -1.5,   -0.7
2000/11/16 13:40,  999.0,    2.3,    2.2,    1.4,    3.2,    2.4,    0.4,   -1.4,   -0.9,   -0.2,   -0.0,   -0.2,   -0.3,   -0.8,   -0.4,    1.4,    2.0,    0.8,    1.4,   -0.8,   -2.9,   -2.8,   -2.3,   -2.3,   -2.3,   -0.6,   -3.3,   -3.1,   -4.2,   -2.4,    0.6,   -1.6,   -5.7,    3.9,    3.8,    3.1,    3.4,    3.9,   -5.4,   -4.6,   -7.6,   -6.9,   -7.0,   -6.6,   -4.8,   -5.3,   -3.7,   -4.0,    6.1,   -3.8,  -18.4,   10.1,  999.0,  999.0,  999.0,   -7.0,    0.1,   -0.9
2000/11/16 13:50,  999.0,    4.9,    5.4,    5.8,    4.0,    3.7,    1.8,   -1.2,    1.3,    1.9,    0.7,   -1.4,   -3.4,   -3.5,   -4.0,   -1.2,   -0.9,    0.2,   -0.2,    1.7,   -1.0,    2.2,    2.3,    4.2,    3.2,    0.7,   -0.4,    0.3,   -0.5,   -7.2,   -7.3,   -3.2,    4.6,   -3.0,   -3.3,   -2.5,   -1.7,   -3.9,   -0.0,   -2.2,   -0.6,    2.2,    0.0,    1.0,   -0.6,   -0.9,    1.2,    2.8,    3.9,    0.4,    2.8,    6.3,    6.4,  999.0,  999.0,  999.0,  999.0,  999.0
2000/11/16 14:00,  999.0,    2.9,    2.9,  999.0,  999.0,  999.0,  999.0,  999.0,    1.6,    0.1,    0.0,    3.4,    4.3,    4.1,    3.1,    1.5,   -0.4,   -1.3,   -2.2,   -2.2,   -2.1,   -0.7,    0.5,    1.2,    2.1,    4.0,    4.7,    5.1,    5.0,    5.6,    5.3,    5.9,    5.4,    6.7,    5.4,    6.3,    6.4,    3.6,    1.0,    2.8,    2.2,    1.9,    2.9,    3.1,    1.7,    3.2,  999.0,   -0.6,    2.7,    3.0,    6.8,   10.4,  999.0,   -7.0,  999.0,   -6.1,  999.0,  999.0
2000/11/16 14:10,  999.0,    4.2,    3.9,    4.8,    6.5,    4.0,    5.9,    4.6,    4.6,    4.8,    5.3,    5.6,    6.7,    7.4,    7.0,    6.9,    5.3,    4.5,    4.9,    5.9,    1.7,    1.4,   -0.5,   -1.5,   -0.5,   -0.1,    0.9,    1.7,   -0.2,    2.0,    2.6,    1.9,    1.8,    2.1,    1.9,    2.3,    1.7,    2.1,    1.2,    1.1,    1.5,   -0.4,   -0.7,   -2.3,   -1.6,   -0.6,   -3.1,   -8.3,   -6.2,   -5.7,  999.0,   -0.9,  999.0,  999.0,   -0.9,   -0.8,   -0.7,   -1.0
2000/11/16 14:20,    4.4,    1.5,    2.7,    4.7,    7.1,   10.0,    7.7,    7.5,    9.1,   12.9,   13.0,    9.8,    7.2,    7.9,   14.2,   22.8,   15.6,  999.0,   -0.5,   -1.4,   -0.6,   -0.9,   -0.1,   -0.4,   -0.1,   -0.3,   -0.7,   -3.2,   -1.7,  999.0,    0.5,   -0.8,   -0.9,   -1.1,   -0.5,   -0.3,   -0.2,    0.2,   -0.1,  999.0,    1.0,   -1.3,    0.2,    0.3,   -0.1,    0.5,    0.4,    0.8,    1.7,    4.1,   -5.2,   -2.6,   -2.0,   -0.1,   -1.8,   -3.4,   -2.2,   -0.7
2000/11/16 14:30,  999.0,    6.5,    0.1,    8.0,    6.4,    0.1,   11.8,   15.1,   19.7,   22.8,   18.5,    5.2,    6.1,   16.4,   10.6,    2.0,    3.9,   -1.9,   -3.7,   -4.3,   -2.4,   -1.1,    0.5,    2.0,    2.2,   -0.1,   -0.6,   -5.1,   -3.8,   -6.2,   -7.6,   -6.6,   -2.4,    0.3,   -2.2,   -2.9,   -2.0,   -4.2,   -3.7,   -2.8,   -4.3,   -2.0,   -5.9,   -3.6,   -1.4,   -2.5,   -4.2,   -9.4,  -10.5,  -21.9,  -18.7,  999.0,  999.0,  999.0,  999.0,  999.0,  999.0,  999.0
2000/11/16 14:40,  999.0,    4.1,    4.6,    3.4,    3.5,    2.8,    4.4,    1.6,    5.4,   10.2,    9.5,    8.8,    3.8,    9.9,    9.6,    9.8,   -1.6,    1.5,    1.5,   -0.9,   -0.2,    0.1,   -1.1,    1.0,    1.0,   -1.0,   -0.6,    1.9,   -2.1,   -1.4,    0.0,   -1.1,    1.1,    0.3,    5.0,    3.5,    2.4,    3.6,    2.8,    0.6,    0.4,    1.8,    2.2,  999.0,   11.3,   -2.0,  999.0,    9.3,    8.3,    3.6,    4.0,  999.0,  -24.1,  999.0,  999.0,  999.0,  999.0,  999.0
2000/11/16 14:50,  999.0,  999.0,  999.0,  999.0,  999.0,  999.0,  999.0,    1.3,    0.5,  999.0,  999.0,  999.0,  999.0,  999.0,  999.0,  999.0,    4.9,    6.2,    5.5,    7.9,   10.9,    9.9,  999.0,    6.8,    7.6,    5.4,    0.8,   -1.0,   -2.5,   -1.9,   -4.5,   -5.1,   -3.9,   -4.2,   -3.4,   -2.6,   -3.8,   -5.7,  999.0,  999.0,   -9.8,   -5.3,   -3.7,   -1.9,   -0.1,   -0.5,   -0.5,   -2.5,   -5.2,   -8.4,  -11.8,  -13.9,  -14.4,  -16.7,  999.0,  999.0,  999.0,  -19.5
2000/11/16 15:00,  999.0,  999.0,  999.0,  999.0,  999.0,    1.6,    5.6,    4.1,  999.0,  999.0,  999.0,  999.0,  999.0,  999.0,    2.5,    1.5,   -0.2,   -1.5,   -1.0,   -1.0,   -1.4,   -1.7,   -0.9,    0.2,   -1.5,   -1.0,   -1.2,   -1.8,   -3.7,   -3.3,   -3.3,   -2.9,   -2.6,   -2.9,   -2.3,   -2.9,   -1.9,   -2.5,   -3.8,   -4.3,   -3.3,   -2.9,   -2.9,   -3.4,   -4.5,   -6.7,   -7.8,   -7.9,   -8.9,   -9.5,  -12.1,   -9.3,   -5.9,   -4.8,   -4.8,   -5.3,   -5.1,   -4.5
2000/11/16 15:10,  999.0,    1.1,    1.3,    2.0,    2.3,    2.0,    1.0,    1.4,    2.0,    1.7,    2.0,    1.7,    1.8,    1.4,    0.6,    0.6,    0.3,    0.2,    0.3,   -0.8,   -1.8,   -1.1,   -0.5,   -0.6,   -1.3,   -2.2,   -2.5,   -1.8,   -2.1,   -2.0,   -2.1,   -2.4,   -2.5,   -2.8,   -3.2,   -4.0,   -4.1,   -4.3,   -4.5,   -4.7,   -4.6,   -4.1,   -4.0,   -4.6,   -5.0,   -5.1,   -5.9,   -6.4,   -7.0,   -7.2,   -6.5,   -5.6,   -4.0,   -2.6,   -2.1,   -1.0,    0.1,    0.0
2000/11/16 15:20,  999.0,   -0.2,    0.3,    0.5,    0.9,    1.6,    2.1,    2.5,    2.6,    2.4,    2.4,    2.1,    0.9,   -0.5,   -1.1,   -1.1,   -1.2,   -0.5,    0.1,    0.2,   -0.1,   -0.4,   -0.6,   -1.2,   -1.2,   -1.0,   -1.1,   -1.0,   -0.5,   -1.0,   -2.6,   -3.3,   -3.8,   -4.2,   -5.3,   -5.3,   -5.3,   -5.5,   -5.2,   -5.0,   -4.5,   -3.9,   -3.8,   -4.3,   -4.8,   -4.6,   -4.4,   -4.2,   -4.4,   -4.0,   -3.8,   -3.3,   -2.7,   -2.7,   -2.3,   -2.1,   -2.2,   -2.4
2000/11/16 15:30,  999.0,    0.0,    0.9,    1.3,    1.4,    1.8,    1.9,    1.6,    2.5,    2.1,    1.6,    1.1,   -1.1,   -2.8,   -3.7,   -3.6,   -2.9,   -2.1,   -2.3,   -2.2,   -2.4,   -2.6,   -2.5,   -2.8,   -3.0,   -3.0,   -2.8,   -1.8,   -0.9,   -1.3,   -1.8,   -2.3,   -2.9,   -3.8,   -4.6,   -4.6,   -4.7,   -4.5,   -4.5,   -3.8,   -3.6,   -3.6,   -3.8,   -4.2,   -4.7,   -4.8,   -5.3,   -5.6,   -4.9,   -5.4,   -5.7,   -5.9,   -5.8,   -6.0,   -5.6,   -5.9,   -6.1,   -6.0
2000/11/16 15:40,  999.0,   -1.6,   -0.8,    0.7,    1.0,    1.1,    1.5,    1.3,    0.9,    0.8,    0.1,   -0.2,   -1.1,   -1.5,   -2.9,   -3.6,   -4.2,   -4.2,   -3.9,   -4.4,   -4.3,   -5.4,   -5.7,   -6.0,   -5.4,   -4.5,   -4.4,   -4.1,   -3.7,   -3.2,   -3.3,   -3.1,   -3.1,   -3.3,   -3.7,   -4.7,   -3.6,   -2.8,   -4.7,   -3.9,   -1.6,   -1.9,   -1.4,   -3.2,   -4.3,   -5.8,   -7.6,   -8.8,   -9.7,  -10.8,  -12.1,  -12.3,  -13.7,  -12.1,  -10.7,  -12.3,  -11.2,   -9.7
2000/11/16 15:50,  999.0,   -2.5,   -1.4,   -0.7,   -0.1,    0.2,    1.1,    2.1,    1.0,    1.1,   -0.1,   -0.9,   -1.9,   -2.7,   -3.3,   -3.0,   -3.2,   -3.9,   -3.8,   -3.3,   -3.4,   -4.3,   -4.2,   -4.4,   -4.2,   -4.1,   -3.3,   -2.6,   -2.2,   -2.7,   -3.0,   -3.1,   -3.8,   -4.2,   -4.4,   -4.8,   -5.0,   -5.3,   -5.1,   -5.3,   -4.9,   -3.8,   -3.7,   -3.9,   -4.2,   -4.5,   -5.7,   -6.5,   -7.9,   -8.2,   -8.7,   -9.4,   -9.7,  -10.0,  -10.1,   -9.8,  -10.0,   -9.7
2000/11/16 16:00,  999.0,   -2.4,   -1.7,   -1.2,   -0.6,   -0.5,    0.1,    1.8,    0.1,   -1.5,   -1.6,   -0.3,   -2.2,   -3.3,   -3.0,   -2.9,   -3.7,   -4.4,   -5.1,   -5.5,   -6.0,   -6.2,   -5.9,   -5.6,   -5.3,   -4.9,   -4.3,   -4.9,   -4.5,   -4.8,   -5.6,   -5.0,   -3.7,   -4.3,   -4.1,   -4.2,   -4.5,   -5.1,   -5.5,   -6.9,   -6.7,   -6.8,   -5.2,   -5.5,   -6.7,   -7.3,   -8.1,   -8.0,   -8.8,   -9.5,  -10.3,  -10.5,  -10.4,  -10.3,  -10.7,  -10.4,  -10.5,  -10.5
2000/11/16 16:10,  999.0,   -1.4,   -1.8,   -0.9,   -0.3,    0.6,    0.7,    0.7,    0.6,    3.8,    2.4,    1.3,    0.5,    0.2,   -0.3,   -0.7,   -1.3,   -2.0,   -2.1,   -3.4,   -3.1,   -2.9,   -2.5,   -1.8,   -1.1,    0.1,    0.3,   -0.8,   -0.8,   -2.7,   -3.1,   -2.7,   -2.5,   -1.4,   -1.5,   -1.9,   -2.5,   -2.3,   -3.0,   -3.9,   -4.9,   -4.6,   -4.2,   -5.3,   -6.2,   -6.7,   -7.2,   -8.1,   -9.0,   -9.7,   -8.8,   -8.9,   -8.9,   -9.0,   -9.1,   -9.5,   -9.5,   -9.7
2000/11/16 16:20,  999.0,   -0.4,   -0.8,   -0.5,    0.3,   -0.6,    1.0,    1.3,    1.5,    1.7,    1.3,    0.3,   -1.7,   -1.9,   -1.8,   -2.1,   -2.2,   -3.6,   -4.6,   -4.4,   -3.7,   -3.6,   -2.8,   -2.2,   -1.4,   -0.8,   -0.6,   -1.5,   -2.3,   -2.8,   -3.1,   -2.8,   -1.5,   -0.1,   -1.8,   -2.7,   -3.0,   -4.6,   -4.7,   -3.6,   -3.7,   -3.9,   -3.7,   -6.0,   -7.1,   -7.0,   -6.6,   -7.4,   -7.9,   -8.7,   -8.7,   -8.3,   -8.3,   -8.9,   -9.1,   -9.2,   -9.6,   -9.8
2000/11/16 16:30,  999.0,   -1.8,   -1.0,   -1.3,   -0.6,   -1.1,    0.5,    1.1,    1.9,   -0.9,   -1.6,   -1.7,   -1.1,   -1.7,   -2.6,   -2.9,   -4.9,   -5.9,   -7.0,   -7.7,   -7.6,   -6.6,   -5.1,   -4.0,    1.5,   -3.0,   -4.8,   -6.2,   -6.1,   -6.0,   -5.9,   -5.0,   -5.3,   -3.9,   -4.6,   -5.6,   -6.6,   -7.4,   -7.2,   -6.8,   -5.1,   -2.9,  999.0,   -3.3,   -5.2,   -5.0,   -5.2,   -6.0,   -6.3,   -6.9,   -7.3,   -7.4,   -7.5,   -7.9,   -8.4,   -9.5,  -10.2,  -10.7
2000/11/16 16:40,  999.0,   -2.5,   -1.7,   -1.8,   -1.5,   -0.4,   -0.1,   -0.2,    0.4,   -0.0,   -1.3,   -1.7,   -2.1,   -2.9,   -3.7,   -4.0,   -4.6,   -4.7,   -5.0,   -5.0,   -5.1,   -5.5,   -5.9,   -6.0,   -6.1,   -5.7,   -5.5,   -5.8,   -6.1,   -5.4,   -4.5,   -4.1,   -3.8,   -4.1,   -4.1,   -4.1,   -4.2,   -4.2,   -3.9,   -4.2,   -4.1,   -3.6,   -4.6,   -4.8,   -4.6,   -6.6,   -7.6,   -8.4,   -8.4,   -8.1,   -8.8,   -9.6,  -10.5,  -10.8,  -11.7,  -11.7,  -11.9,  -12.1
2000/11/16 16:50,  999.0,   -1.8,   -1.5,   -2.2,   -1.7,   -0.9,   -0.7,   -0.7,   -0.5,   -0.9,   -1.8,   -2.1,   -2.4,   -3.1,   -4.1,   -4.5,   -4.8,   -4.6,   -4.5,   -4.2,   -3.9,   -4.5,   -5.6,   -5.9,   -5.8,   -5.9,   -5.7,   -4.9,   -4.3,   -3.7,   -3.2,   -2.8,   -2.7,   -2.8,   -2.6,   -2.8,   -3.5,   -4.8,   -6.1,   -5.8,   -4.4,   -3.4,   -3.1,   -5.3,   -7.2,   -7.9,   -7.9,   -9.0,   -9.4,  -10.0,  -10.7,  -10.4,  -10.5,  -10.9,  -10.6,  -10.7,  -11.7,  -12.8
2000/11/16 17:00,  999.0,   -1.7,   -2.0,   -2.6,   -2.0,   -1.4,   -1.2,   -1.1,   -1.0,   -1.9,   -2.4,   -2.5,   -3.3,   -4.4,   -5.1,   -5.5,   -5.8,   -5.6,   -5.6,   -5.7,   -5.6,   -5.7,   -6.0,   -6.0,   -6.5,   -6.4,   -5.9,   -5.0,   -5.2,   -5.0,   -4.5,   -4.2,   -4.1,   -3.9,   -3.9,   -3.7,   -3.6,   -4.4,   -5.7,   -6.5,   -6.0,   -4.8,   -4.7,   -5.6,   -7.2,   -7.4,   -6.7,   -6.9,   -7.9,   -8.1,   -8.6,   -9.6,   -8.8,   -9.2,   -8.9,   -9.1,   -8.8,   -8.7
2000/11/16 17:10,  999.0,   -1.9,   -2.2,   -2.4,   -2.6,   -2.0,   -1.6,   -1.4,   -1.2,   -1.7,   -2.4,   -3.0,   -3.9,   -4.9,   -5.5,   -5.4,   -5.1,   -4.2,   -4.1,   -4.7,   -4.6,   -5.1,   -5.6,   -5.9,   -5.8,   -5.5,   -4.7,   -4.5,   -4.7,   -4.5,   -4.7,   -4.5,   -4.2,   -4.0,   -3.7,   -3.6,   -3.7,   -4.6,   -5.3,   -6.3,   -7.0,   -5.5,   -4.9,   -6.6,   -6.9,   -7.2,   -7.1,   -6.8,   -6.9,   -7.0,   -6.8,   -6.8,   -6.9,   -7.3,   -7.7,   -7.9,   -7.3,   -7.7
2000/11/16 17:20,  999.0,   -2.6,   -2.7,   -3.0,   -2.6,   -1.6,   -1.0,   -1.0,   -1.6,   -2.1,   -2.5,   -2.7,   -3.7,   -5.0,   -5.9,   -5.7,   -5.7,   -4.8,   -4.5,   -4.6,   -5.4,   -6.2,   -6.4,   -7.0,   -6.8,   -6.4,   -6.2,   -5.7,   -5.6,   -5.6,   -5.4,   -5.3,   -5.5,   -4.7,   -4.4,   -4.2,   -4.0,   -4.1,   -4.5,   -4.9,   -5.3,   -4.8,   -3.6,   -7.0,   -7.4,   -7.5,   -7.1,   -7.1,   -7.0,   -7.0,   -7.1,   -7.3,   -7.8,   -8.0,   -7.8,   -7.7,   -7.6,   -8.1
2000/11/16 17:30,  999.0,   -2.6,   -3.3,   -3.2,   -2.5,   -2.0,   -1.4,   -1.5,   -2.3,   -2.8,   -2.8,   -2.8,   -3.9,   -4.8,   -5.2,   -5.2,   -5.1,   -4.6,   -4.3,   -4.6,   -5.6,   -6.2,   -6.2,   -6.8,   -7.5,   -7.9,   -7.9,   -7.4,   -7.6,   -7.0,   -7.0,   -7.0,   -6.2,   -6.1,   -6.0,   -5.8,   -5.2,   -4.5,   -3.9,   -3.0,   -2.3,   -1.0,  999.0,   -4.2,   -6.3,   -7.7,   -7.5,   -7.6,   -7.7,   -7.8,   -7.5,   -6.8,   -6.5,   -6.5,   -6.4,   -6.4,   -6.8,   -7.0
2000/11/16 17:40,  999.0,   -1.8,   -3.1,   -2.8,   -1.8,   -1.2,   -1.1,   -2.0,   -2.4,   -2.4,   -2.6,   -4.0,   -5.5,   -5.9,   -6.2,   -5.9,   -5.3,   -5.0,   -5.7,   -5.6,   -5.3,   -5.6,   -5.9,   -6.1,   -6.6,   -5.5,   -5.8,   -6.8,   -6.7,   -6.5,   -6.4,   -5.4,   -5.7,   -4.7,   -4.6,   -4.7,   -3.4,   -3.3,   -3.0,   -2.4,   -2.6,   -1.3,  999.0,  999.0,   -6.2,   -8.1,   -7.9,   -8.5,   -8.1,   -7.8,   -7.3,   -6.5,   -6.0,   -5.9,   -6.3,   -6.4,   -6.8,   -7.1
2000/11/16 17:50,  999.0,   -1.9,   -3.3,   -3.6,   -2.4,   -1.3,   -1.1,   -1.2,   -2.0,   -2.8,   -2.4,   -3.7,   -4.8,   -5.3,   -5.2,   -6.0,   -5.9,   -5.1,   -4.9,   -5.4,   -5.5,   -6.0,  -11.7,  -12.3,   -6.7,  -12.3,  -11.8,  -10.8,  -11.4,  -11.9,  -11.9,  -11.8,  -11.3,  -11.3,  -11.5,  -11.1,  -10.7,  -11.3,  -11.6,  -14.2,  -10.8,   -9.6,   -8.2,   -7.5,   -8.5,   -8.6,   -7.6,   -7.3,   -7.1,   -7.0,   -7.0,   -6.7,   -5.9,   -5.4,   -5.7,   -6.2,   -6.4,   -6.7
2000/11/16 18:00,  999.0,   -1.0,   -2.7,   -3.2,   -2.7,   -2.0,   -1.9,   -2.0,   -2.3,   -2.8,   -2.9,   -2.8,   -3.7,   -4.6,   -5.4,   -5.4,   -4.8,   -4.8,   -5.0,   -5.5,   -5.6,   -6.1,   -6.8,   -6.9,   -7.4,   -7.1,   -5.9,   -4.6,   -4.2,   -4.5,   -5.3,   -4.6,   -4.1,   -3.8,   -4.1,   -4.3,   -5.8,   -5.8,   -6.6,   -6.5,   -7.0,   -5.0,   -3.1,   -3.5,   -5.0,   -5.5,   -5.9,   -6.4,   -6.7,   -6.8,   -6.8,   -6.6,   -5.5,   -5.3,   -6.0,   -6.7,   -7.5,   -7.4
2000/11/16 18:10,  999.0,  999.0,  999.0,  999.0,  999.0,  999.0,    0.6,  999.0,  999.0,  999.0,  999.0,  999.0,  999.0,  999.0,   -5.6,  999.0,  999.0,   -3.8,  999.0,  999.0,  999.0,  999.0,   -3.7,  999.0,  999.0,   -3.6,   -4.8,   -3.6,   -3.3,   -5.8,   -4.8,   -2.4,   -5.3,   -4.7,  999.0,   -4.2,   -6.5,  999.0,  999.0,  999.0,  999.0,  999.0,   -5.0,  999.0,  999.0,  999.0,  999.0,  999.0,  999.0,  999.0,  999.0,  999.0,  999.0,  999.0,  999.0,  999.0,  999.0,  999.0
2000/11/16 18:20,  999.0,   -9.6,  999.0,   -2.4,   -2.3,   -2.4,   -2.6,   -2.0,   -1.8,   -2.3,   -0.6,    0.7,   -1.2,   -3.1,   -2.5,  999.0,   -4.0,   -4.4,   -3.6,   -3.1,  999.0,    0.5,  999.0,  999.0,  999.0,  999.0,  999.0,  999.0,  999.0,  999.0,  999.0,  999.0,  999.0,  999.0,  999.0,  999.0,  999.0,  999.0,  999.0,  999.0,  999.0,  999.0,  999.0,  999.0,  999.0,  999.0,  999.0,  999.0,  999.0,  999.0,  999.0,  999.0,  999.0,  999.0,  999.0,  999.0,  999.0,  999.0
2000/11/16 18:30,  -21.3,  -19.5,  -13.3,   -8.6,   -6.2,   -5.7,   -5.9,   -6.8,   -2.2,   -1.4,   -2.0,   -2.8,   -2.1,   -1.8,   -0.4,   -5.3,   -6.0,   -3.0,   -5.3,   -4.3,  999.0,  999.0,  999.0,  999.0,  999.0,  999.0,  999.0,  999.0,  999.0,  999.0,  999.0,  999.0,  999.0,  999.0,  999.0,  999.0,  999.0,  999.0,  999.0,  999.0,  999.0,  999.0,  999.0,  999.0,  999.0,  999.0,  999.0,  999.0,  999.0,  999.0,  999.0,  999.0,  999.0,  999.0,  999.0,  999.0,  999.0,  999.0
2000/11/16 18:40,  -23.4,  -19.6,  -19.0,  -15.6,   -8.9,  -15.3,  999.0,  -11.2,   -3.7,   -2.4,   -2.2,    1.7,    0.6,  999.0,   -5.0,   -5.7,   -5.9,   -5.8,   -6.4,   -4.4,  999.0,  999.0,  999.0,  999.0,  999.0,  999.0,  999.0,  999.0,  999.0,  999.0,  999.0,  999.0,  999.0,  999.0,  999.0,  999.0,  999.0,  999.0,  999.0,  999.0,  999.0,  999.0,  999.0,  999.0,  999.0,  999.0,  999.0,  999.0,  999.0,  999.0,  999.0,  999.0,  999.0,  999.0,  999.0,  999.0,  999.0,  999.0
2000/11/16 18:50,  -26.0,  -22.1,  -18.2,  -13.1,   -9.4,  999.0,  999.0,   -5.7,   -4.6,  999.0,   -3.2,   -6.0,   -3.0,   -4.7,   -1.3,   -5.5,   -5.8,   -6.4,  999.0,  999.0,  999.0,  999.0,  999.0,  999.0,    5.1,  999.0,  999.0,  999.0,  999.0,  999.0,  999.0,  999.0,  999.0,  999.0,  999.0,  999.0,  999.0,  999.0,  999.0,  999.0,  999.0,  999.0,  999.0,  999.0,  999.0,  999.0,  999.0,  999.0,  999.0,  999.0,  999.0,  999.0,  999.0,  999.0,  999.0,  999.0,  999.0,  999.0
2000/11/16 19:00,  999.0,  999.0,  999.0,   -4.7,   -6.8,  999.0,   -7.9,  999.0,   -6.2,   -8.2,  999.0,   -9.6,  999.0,   -5.7,   -6.8,   -3.6,   -7.4,  999.0,  999.0,  999.0,  999.0,  999.0,  999.0,  999.0,  999.0,  999.0,  999.0,  999.0,  999.0,  999.0,  999.0,  999.0,  999.0,  999.0,  999.0,  999.0,  999.0,  999.0,  999.0,  999.0,  999.0,  999.0,  999.0,  999.0,  999.0,  999.0,  999.0,  999.0,  999.0,  999.0,  999.0,  999.0,  999.0,  999.0,  999.0,  999.0,  999.0,  999.0
2000/11/16 19:10,  999.0,  999.0,  999.0,  999.0,   -1.9,  -10.5,   -8.6,  999.0,  999.0,  999.0,  999.0,   -5.1,   -7.7,  999.0,   -5.8,   -6.7,   -7.2,  999.0,  999.0,  999.0,  999.0,  999.0,  999.0,  999.0,  999.0,  999.0,  999.0,  999.0,  999.0,  999.0,  999.0,  999.0,  999.0,  999.0,  999.0,  999.0,  999.0,  999.0,  999.0,  999.0,  999.0,  999.0,  999.0,  999.0,  999.0,  999.0,  999.0,  999.0,  999.0,  999.0,  999.0,  999.0,  999.0,  999.0,  999.0,  999.0,  999.0,  999.0
2000/11/16 19:20,  999.0,  999.0,  999.0,  999.0,   -2.5,  999.0,  999.0,   -0.1,  999.0,  999.0,  999.0,  999.0,  999.0,   -5.8,   -4.5,   -3.6,   -4.2,  999.0,  999.0,  999.0,  999.0,  999.0,  999.0,  999.0,  999.0,  999.0,  999.0,  999.0,  999.0,  999.0,  999.0,  999.0,  999.0,  999.0,  999.0,  999.0,  999.0,  999.0,  999.0,  999.0,  999.0,  999.0,  999.0,  999.0,  999.0,  999.0,  999.0,  999.0,  999.0,  999.0,  999.0,  999.0,  999.0,  999.0,  999.0,  999.0,  999.0,  999.0
2000/11/16 19:30,  999.0,  999.0,  999.0,  999.0,  999.0,   -1.3,   -6.0,    0.2,  999.0,  999.0,  999.0,  999.0,   -3.6,   -4.8,  999.0,  999.0,  999.0,  999.0,  999.0,  999.0,  999.0,  999.0,  999.0,  999.0,  999.0,  999.0,  999.0,  999.0,  999.0,  999.0,  999.0,  999.0,  999.0,  999.0,  999.0,  999.0,  999.0,  999.0,  999.0,  999.0,  999.0,  999.0,  999.0,  999.0,  999.0,  999.0,  999.0,  999.0,  999.0,  999.0,  999.0,  999.0,  999.0,  999.0,  999.0,  999.0,  999.0,  999.0
2000/11/16 19:40,  999.0,   -2.3,   -4.6,   -5.3,   -3.6,   -7.7,   -2.5,   -9.8,  999.0,  999.0,   -4.3,  999.0,   -3.8,   -4.7,  999.0,  999.0,  999.0,  999.0,  999.0,  999.0,  999.0,  999.0,  999.0,  999.0,  999.0,  999.0,  999.0,  999.0,  999.0,  999.0,  999.0,  999.0,  999.0,  999.0,  999.0,  999.0,  999.0,  999.0,  999.0,  999.0,  999.0,  999.0,  999.0,  999.0,  999.0,  999.0,  999.0,  999.0,  999.0,  999.0,  999.0,  999.0,  999.0,  999.0,  999.0,  999.0,  999.0,  999.0
2000/11/16 19:50,  999.0,   -0.0,   -1.3,   -4.2,   -4.5,   -2.0,    0.2,   -4.3,    0.1,   -4.5,  -12.3,  -12.6,   -6.4,   -7.5,   -5.9,   -9.9,   -9.5,   -8.1,   -4.7,   -6.6,   -5.5,   -5.3,   -5.3,   -5.7,   -5.5,   -5.8,   -6.0,   -7.0,   -8.5,   -9.1,   -9.7,  -10.3,  -10.9,  -10.9,  -10.8,  -10.9,  -10.9,  -10.6,  -10.4,  -10.9,  -11.7,  -12.2,  -12.8,  -11.4,  -12.4,  -14.0,  -13.2,  -11.1,  -10.7,  -10.1,   -9.3,   -8.8,   -8.4,   -8.1,   -7.3,   -6.9,   -6.9,   -6.8
2000/11/16 20:00,  999.0,  999.0,  -13.1,  -14.8,  -14.8,  -11.7,   -9.9,   -8.6,   -6.1,   -4.6,   -6.4,   -7.4,   -5.6,   -3.7,   -3.6,   -3.4,   -2.9,   -2.5,   -2.4,   -2.9,   -2.7,   -3.1,   -2.2,   -1.4,   -2.7,   -2.5,   -4.6,   -5.3,   -5.3,   -6.2,   -6.2,   -6.3,   -6.8,   -7.9,   -7.5,   -8.5,   -8.5,   -9.8,  -10.1,  -10.4,   -9.6,   -8.1,   -7.3,   -8.5,  -11.0,  -10.7,  -11.5,  -11.3,  -11.3,  -11.9,  -11.3,  -10.8,  -10.1,   -9.4,  -10.6,   -9.4,   -8.7,   -8.3
2000/11/16 20:10,  999.0,   -6.5,   -8.4,  999.0,  999.0,    7.2,    8.0,    8.4,  999.0,   -3.4,  -10.7,  -12.5,  -12.0,   -7.0,   -3.9,   -7.9,   -4.0,   -0.2,   -9.1,   -9.1,   -8.9,   -8.0,   -8.8,  -17.3,   -1.3,   -8.4,   -0.5,  -12.6,  -10.1,   -9.3,  -10.5,  -23.6,  -10.3,  -25.0,   -9.9,  -12.4,  -10.4,  -10.2,  -10.0,  -11.7,  -12.4,  -10.9,   -8.2,   -9.7,  -10.4,   -9.6,  -10.2,  -11.1,  -11.7,  -12.3,  -10.8,  -11.4,  -10.6,  -10.6,  -11.0,  -11.6,  -12.0,  -12.3
2000/11/16 20:20,  999.0,  999.0,   -3.7,   -4.6,   -8.0,   -4.9,   -3.3,   -0.4,   -0.3,   -0.6,   -3.3,   -0.3,    0.0,   -0.9,    0.2,    3.0,   -2.2,   -3.0,    3.7,   -0.3,   -2.5,   -3.7,   -3.8,   -2.4,   -0.9,   -0.1,   -0.2,   -0.4,   -2.1,   -6.4,   -3.7,   -3.6,   -3.4,   -9.1,   -3.7,   -4.1,   -3.1,   -3.5,   -0.6,  -10.4,   -5.7,   -6.3,   -7.4,   -3.3,   -1.0,   -2.0,   -1.6,   -7.9,   10.0,    7.4,  999.0,    9.8,    4.7,  999.0,  999.0,  999.0,  999.0,  999.0
2000/11/16 20:30,   16.5,   18.1,   20.9,   17.6,   17.4,   12.0,   14.0,   14.5,   13.0,   15.5,   14.9,   15.9,   10.2,   12.9,  999.0,   17.9,  999.0,  999.0,  999.0,  999.0,   -0.8,  999.0,  999.0,  999.0,  999.0,    0.0,  999.0,  999.0,  999.0,   -1.0,   -1.2,   -0.7,   -0.8,   -0.5,    0.3,   -0.6,   -0.4,   -1.0,  999.0,  999.0,   -0.5,  999.0,   -0.1,   -0.8,   -0.7,  999.0,   -0.2,   -1.1,   -0.5,   -0.7,  999.0,  999.0,   -0.7,  999.0,  999.0,  999.0,  999.0,  999.0
2000/11/16 20:40,   19.0,   -4.1,    1.6,    5.9,    7.6,   -7.0,  999.0,    0.3,   -1.1,   -5.0,  999.0,   -6.2,   -6.0,  999.0,   12.5,   12.9,    6.8,  999.0,  999.0,  999.0,  999.0,  999.0,  999.0,  999.0,  999.0,  999.0,  999.0,  999.0,  999.0,  999.0,    6.1,  999.0,  999.0,  999.0,   -1.1,   -1.0,   -1.3,   -0.9,   -0.8,  999.0,   -1.2,   -0.5,   -0.7,    3.6,    7.6,    6.8,  999.0,  999.0,   -0.8,   -0.9,  999.0,  999.0,  999.0,  999.0,   -0.5,  999.0,  999.0,   -1.1
2000/11/16 20:50,  999.0,    7.7,   16.1,    5.9,   -2.7,   -5.6,    5.1,  999.0,   -3.7,  999.0,  999.0,   -4.5,    0.2,    0.7,   -1.2,   -4.3,  999.0,  999.0,   -3.1,  -20.4,  -17.8,   -8.0,  -14.7,  -13.1,  -11.1,   -9.1,   -6.5,   -2.6,   -2.1,   -1.3,   -1.7,   -2.4,   -2.2,   -1.4,   -1.7,   -3.2,   -3.0,   -1.7,   -3.0,   -3.2,   -3.0,   -4.1,   -4.7,   -0.2,   -0.2,   -4.9,   -5.5,   -5.9,    3.2,    5.3,    7.1,    7.9,    7.4,   -0.9,  999.0,  999.0,   -1.3,  999.0
2000/11/16 21:00,  999.0,  999.0,  -13.3,  -11.9,  -16.4,  -17.8,   -9.1,   -9.3,  -10.8,  -10.9,  -10.3,  -13.4,  -12.6,  -10.3,   -8.7,   -6.8,   -6.2,   -7.7,   -6.3,   -4.8,   -2.5,   -1.5,   -5.0,    1.7,   -0.7,    0.1,    2.3,    3.1,    1.5,    3.1,    1.2,    0.7,    1.0,    2.9,    1.3,    1.8,   -0.6,   -1.1,   -1.1,   -0.6,   -0.1,   -0.9,   -2.5,    0.1,   -0.4,  999.0,  -11.5,   -1.4,  999.0,   -0.7,   -0.9,    0.3,  999.0,  999.0,  999.0,   -0.8,   -0.4,   -1.0
2000/11/16 21:10,  999.0,  999.0,  -11.0,   -7.7,  999.0,  999.0,  999.0,  999.0,  -12.8,  999.0,   -9.1,  -10.2,   -0.3,    0.5,  999.0,  999.0,  -11.9,  -10.2,   -7.9,   -6.7,   -7.8,   -7.1,   -5.5,  999.0,   -3.5,  999.0,  999.0,  999.0,  999.0,  999.0,  999.0,   -0.1,   -0.8,  999.0,   -0.4,  999.0,   -0.3,   -0.4,   -1.5,   -1.0,  999.0,  999.0,   -0.6,   -0.6,   -0.4,   -1.1,   -1.0,   -1.0,  999.0,  999.0,   -0.9,   -0.7,   -0.3,  999.0,   -2.2,   -0.6,   -1.1,   -1.4
2000/11/16 21:20,  999.0,  999.0,  999.0,    1.3,   -3.6,   -2.5,   -1.2,  999.0,  999.0,  999.0,  999.0,  999.0,   -5.7,   -5.8,  999.0,  999.0,  999.0,  999.0,  999.0,  999.0,  999.0,  999.0,  999.0,  999.0,  999.0,  999.0,  999.0,   15.7,  999.0,  999.0,  999.0,  999.0,  999.0,  999.0,  999.0,  999.0,  999.0,  999.0,  999.0,  999.0,  999.0,  999.0,  999.0,  999.0,  999.0,  999.0,  999.0,  999.0,  999.0,  999.0,  999.0,   -0.5,   -0.5,  999.0,   -1.0,   -0.4,  999.0,  999.0
2000/11/16 21:30,  999.0,    3.0,   -0.2,   -1.2,   -0.1,   -2.1,  999.0,   -6.5,  999.0,   -2.9,   -5.9,  -11.4,  -11.8,   -1.7,    6.7,  999.0,  999.0,  999.0,   -4.8,  999.0,   -5.5,    2.3,    3.8,    6.2,   -9.1,  999.0,  999.0,  999.0,  999.0,  999.0,  999.0,  999.0,   -1.2,  999.0,  999.0,  999.0,  999.0,  999.0,   -1.2,   -1.0,  999.0,  999.0,  999.0,  999.0,   -1.0,   -0.3,   -1.9,   -1.0,   -0.7,  999.0,  999.0,   -1.5,  999.0,   -0.1,  999.0,  999.0,  999.0,  999.0
2000/11/16 21:40,   -3.8,  999.0,  999.0,  999.0,    3.7,   -1.1,   -2.3,  999.0,  999.0,  999.0,  999.0,  999.0,   -5.5,   -4.7,   -5.0,  999.0,  999.0,  999.0,  999.0,    1.3,  999.0,    3.4,    4.1,  999.0,  999.0,  999.0,  999.0,  999.0,  999.0,  999.0,  999.0,   -0.9,  999.0,   -0.8,   -0.6,   -0.9,   -0.5,   -0.7,   -0.1,   -0.8,   -0.8,   -1.0,   -1.7,   -1.2,   -0.4,   -1.4,   -0.7,   -0.4,  999.0,   -0.6,   -1.2,  999.0,   -0.8,   -1.1,   -1.3,   -0.8,   -1.0,  999.0
2000/11/16 21:50,  999.0,   -3.1,   -7.0,  999.0,  999.0,   -4.3,   -1.7,  999.0,   -7.5,  999.0,  999.0,  999.0,   -3.8,  999.0,  999.0,  999.0,  999.0,  999.0,  999.0,  999.0,  999.0,  999.0,    2.6,  999.0,  999.0,  999.0,  999.0,  999.0,  999.0,    5.1,  999.0,   -1.2,  999.0,   -0.8,   -1.2,   -1.1,   -0.2,   -1.0,   -0.8,   -0.1,   -0.6,   -0.6,   -0.0,   -0.5,  999.0,  999.0,   -1.0,   -0.8,  999.0,   -0.7,  999.0,   -0.3,  999.0,   -0.7,   -0.4,   -0.5,   -0.5,    0.1
2000/11/16 22:00,   -9.0,  999.0,  999.0,   -1.6,   -3.6,   -7.3,   -5.0,   -7.6,  999.0,  999.0,  -12.7,  999.0,   -3.2,  999.0,  999.0,  -14.5,  999.0,  999.0,  999.0,  999.0,  -14.8,  999.0,  -13.6,  -11.6,   -8.1,   -9.3,  999.0,  999.0,  999.0,   -0.6,  999.0,   -1.2,   -1.5,   -1.2,   -1.1,   -0.8,   -0.3,   -0.7,  999.0,  999.0,   -0.2,  999.0,   -0.6,   -0.5,   -1.1,   -0.6,  999.0,   -0.5,   -0.5,  999.0,   -1.0,   -0.3,   -0.9,   -0.8,   -0.3,   -0.5,   -0.8,   -1.1
2000/11/16 22:10,   -7.1,   12.8,    7.0,    3.5,   -1.5,   -4.4,   -2.5,   -6.3,   -2.0,   -7.0,  999.0,  -11.6,  999.0,  -11.4,  999.0,  999.0,  -21.0,  999.0,  999.0,  999.0,  999.0,  999.0,   -7.7,  999.0,  999.0,   -3.4,  999.0,   -0.9,  999.0,  999.0,   -0.6,   -0.5,   -0.3,   -1.0,   -1.0,   -0.6,    0.0,   -0.8,   -0.9,   -0.3,  999.0,   -0.8,   -0.9,   -0.7,   -0.7,   -0.5,   -0.2,   -0.6,  999.0,   -0.7,   -0.8,   -0.8,   -0.6,  999.0,  999.0,   -0.9,   -1.3,   -0.7
2000/11/16 22:20,  999.0,    1.6,  999.0,   -0.8,    4.6,    2.8,   -1.0,   -2.0,  -15.0,  -11.7,   -7.9,   -5.7,  -10.1,  -11.2,  -21.7,  -21.1,  -15.3,  -18.4,  999.0,  -15.5,  -14.1,  -12.8,  999.0,   -8.8,  -10.1,   -6.1,  999.0,  999.0,  999.0,   -0.2,   -2.3,   -1.0,   -0.4,   -0.3,   -1.3,   -1.1,  999.0,   -0.6,   -0.8,   -0.7,   -0.7,   -1.1,   -0.7,   -1.2,   -0.5,   -0.2,   -0.6,  999.0,   -0.1,  999.0,   -0.4,   -0.2,  999.0,   -0.4,   -0.4,    0.2,   -0.2,  999.0
2000/11/16 22:30,  999.0,  999.0,    0.9,    1.9,   -1.2,   -4.0,   -4.0,   -6.7,  999.0,  999.0,   -5.3,   -8.3,  999.0,  999.0,  999.0,  999.0,  999.0,  999.0,  -17.9,  999.0,  999.0,  -14.9,  -14.4,  -12.3,  -11.4,  -11.0,    7.7,   -7.9,  999.0,   -6.1,   -4.2,   -4.4,  999.0,  999.0,   -0.7,   -0.5,   -0.4,  999.0,  999.0,   -0.5,  999.0,  999.0,  999.0,  999.0,   -1.3,  999.0,  999.0,  999.0,  999.0,  999.0,  999.0,  999.0,  999.0,  999.0,  999.0,  999.0,  999.0,  999.0
2000/11/16 22:40,  999.0,  999.0,  999.0,  999.0,  999.0,   -2.0,   -5.6,   -5.5,  999.0,  999.0,  999.0,   -4.7,  -21.9,  -21.7,  999.0,  999.0,  -20.6,  -19.4,  -19.5,  999.0,  -15.3,  -14.6,  -12.9,  999.0,   -9.5,   -8.9,  999.0,  999.0,   -4.1,   -3.1,   -0.6,   -0.5,   -0.6,   -0.1,   -1.2,   -1.4,   -0.6,   -0.5,   -0.8,   -0.8,   -0.7,   -0.7,   -0.7,   -0.6,   -0.6,  999.0,  999.0,   -0.8,   -0.0,   -0.2,   -1.1,   -0.7,   -1.0,   -0.8,  999.0,   -0.2,   -0.8,   -1.4
2000/11/16 22:50,  999.0,  999.0,  999.0,  999.0,  999.0,   -7.0,  999.0,   -6.7,  999.0,  999.0,  999.0,  999.0,  -21.3,  999.0,  999.0,  -21.4,  999.0,  -10.3,  -20.0,  -19.5,  999.0,  -17.2,  -14.7,  999.0,  999.0,  999.0,  999.0,   -9.9,   -9.4,  999.0,   -8.2,   -6.6,   -5.9,   -6.0,   -3.7,   -1.6,   -2.1,   -0.7,  999.0,   -1.4,   -0.6,   -0.8,   -0.9,   -0.9,   -1.1,   -0.8,  999.0,  999.0,  999.0,   -0.6,  999.0,  999.0,  999.0,  999.0,  999.0,  999.0,  999.0,  999.0
2000/11/16 23:00,  999.0,  999.0,  999.0,  999.0,  999.0,  999.0,  -12.9,  999.0,  999.0,  999.0,  -14.4,  -19.1,  -20.9,  -21.3,  -20.5,  -20.8,  -20.7,  -19.4,  999.0,  999.0,  999.0,  999.0,  999.0,  -14.2,  -11.7,  999.0,   -8.1,  -10.4,  999.0,   -5.2,   -4.0,   -3.0,   -1.5,   -4.2,   -3.5,   -1.2,   -0.9,   -0.7,   -0.3,   -0.6,   -0.5,   -0.9,   -0.9,   -0.9,   -1.0,   -0.6,  999.0,   -0.7,   -0.3,   -0.1,   -0.7,   -0.9,   -0.5,   -0.9,   -0.4,   -1.4,   -0.9,   -1.0
2000/11/16 23:10,   -5.4,  999.0,  999.0,  999.0,  999.0,  999.0,  999.0,  999.0,  999.0,  999.0,  -20.2,  -21.0,  -21.5,  -21.5,  -20.1,  -21.1,  -19.1,  999.0,  999.0,  999.0,  999.0,  999.0,  999.0,  999.0,   -9.3,   -8.5,   -8.2,   -5.9,  999.0,   -3.5,   -4.1,   -4.5,   -1.8,   -0.8,   -0.7,   -0.4,   -1.1,   -0.8,   -0.6,   -1.0,   -1.0,   -1.4,   -1.0,   -0.8,   -0.9,   -0.4,   -0.9,   -1.2,   -0.9,   -0.9,   -0.9,   -1.1,   -1.0,  999.0,   -0.2,  999.0,   -1.2,   -0.4
2000/11/16 23:20,  -10.0,  999.0,  999.0,  999.0,   -1.0,   -1.5,  999.0,  999.0,  999.0,  999.0,  999.0,  999.0,  999.0,  -21.5,  -20.7,  -21.8,  -21.1,  999.0,  999.0,  999.0,  999.0,  999.0,  999.0,  -10.4,  999.0,  999.0,  999.0,   -4.3,  999.0,  999.0,  999.0,  999.0,  999.0,   -0.4,   -0.9,  999.0,  999.0,   -1.0,   -0.9,   -1.3,  999.0,   -0.5,   -1.1,   -0.7,  999.0,   -0.3,   -0.3,  999.0,   -0.8,   -0.6,   -1.0,   -0.5,  999.0,   -1.2,  999.0,   -0.9,   -0.4,   -0.5
2000/11/16 23:30,  999.0,  999.0,  999.0,  999.0,  999.0,   -2.5,   -4.4,   -4.2,   -7.6,  999.0,  999.0,  999.0,  999.0,  999.0,   -8.5,  -20.1,  999.0,  999.0,  999.0,  999.0,  999.0,  999.0,  999.0,  -11.3,   -9.9,   -8.8,   -6.9,  999.0,   -4.8,   -2.5,   -1.2,   -0.5,   -1.3,   -1.1,   -0.7,   -0.7,   -0.0,   -0.7,  999.0,   -0.7,  999.0,  999.0,   -0.9,  999.0,   -0.9,   -0.2,   -0.2,   -0.3,   -0.4,  999.0,  999.0,   -0.3,  999.0,   -0.8,  999.0,   -0.7,   -0.5,   -0.6
2000/11/16 23:40,  999.0,  999.0,  999.0,  999.0,  999.0,  999.0,   -5.8,   -5.1,  -19.0,  999.0,   -3.9,    4.9,  999.0,  999.0,  999.0,  999.0,  999.0,   -3.9,   -3.0,   -1.5,    1.8,  999.0,  999.0,  999.0,  999.0,  999.0,  999.0,  999.0,  999.0,  999.0,  999.0,   -7.1,   -5.8,   -5.2,  999.0,  999.0,   -1.0,  999.0,   -0.6,   -0.9,   -0.8,   -0.9,   -0.7,   -0.0,   -0.6,   -0.4,   -0.3,   -0.5,   -0.4,  999.0,   -0.7,   -0.3,  999.0,   -0.5,   -0.9,   -0.7,  999.0,   -0.9
2000/11/16 23:50,  999.0,  999.0,  999.0,  999.0,    1.0,   -5.0,   -5.4,   -4.4,   -7.7,   -7.2,   -1.3,   -4.4,   -1.9,   -2.2,   -1.2,   -4.6,  999.0,   -3.4,   -3.1,  999.0,    3.6,  999.0,  999.0,  999.0,  999.0,  999.0,  999.0,  999.0,  999.0,  999.0,  999.0,  999.0,   -3.9,  999.0,  999.0,   -0.7,   -0.7,   -0.4,  999.0,  999.0,   -1.3,  999.0,   -0.3,  999.0,  999.0,  999.0,   -0.5,   -0.5,   -0.9,   -0.6,  999.0,   -0.8,  999.0,   -0.4,  999.0,  999.0,  999.0,  999.0
